GFSFLT1_925_thetae_000.txt.gz
Theta_e
318 317 316 315 314 312 311 310 309 310 309 309 309 309 309 309 309 309 309 307 306 306 306 306 306 305 305 305 305 304 304 304
317 317 316 314 313 312 310 310 309 308 308 308 308 308 308 308 308 308 308 307 306 305 305 305 305 305 304 304 304 304 304 304
317 317 316 314 313 312 311 310 309 308 308 307 307 308 308 308 307 307 307 307 305 305 305 304 304 304 304 304 305 304 304 303
316 316 315 315 314 313 312 311 310 309 308 308 308 307 307 306 306 306 307 306 306 306 305 305 304 304 304 304 303 303 304 304
317 316 315 314 314 314 313 312 311 310 309 308 307 307 306 306 305 305 305 306 306 306 305 305 304 303 303 303 304 304 303 304
317 316 315 314 313 314 313 312 312 311 310 309 307 307 307 307 306 305 305 305 304 304 304 303 303 303 303 302 301 302 302 304
316 316 315 315 314 313 313 313 312 312 311 310 308 307 306 307 306 305 304 303 302 301 301 300 300 299 299 299 298 298 299 300
317 316 316 315 315 314 314 313 313 312 312 311 309 308 306 305 306 304 302 302 300 299 298 298 297 297 296 295 295 296 297 297
317 317 317 316 315 315 314 313 313 313 312 311 310 308 306 306 304 302 299 298 298 298 297 296 295 295 294 294 294 295 295 296
318 317 316 315 315 315 314 314 313 313 312 312 309 308 306 304 302 300 298 297 296 295 295 294 294 294 294 294 294 294 295 295
318 317 315 315 315 315 313 313 312 310 308 308 305 304 302 300 298 297 296 295 295 295 294 293 293 293 293 293 293 294 294 294
317 316 315 314 313 312 311 310 308 307 305 304 301 300 299 297 296 295 295 294 294 294 293 293 292 293 292 292 293 293 293 293
315 314 314 313 313 312 311 309 306 305 303 300 299 298 296 295 294 295 295 294 294 293 292 292 292 292 292 292 292 292 292 292
314 314 313 312 311 311 311 306 305 303 300 298 297 296 295 295 295 295 294 294 293 292 292 292 292 291 291 291 291 291 291 291
314 313 312 311 311 310 308 304 304 302 299 298 296 295 295 296 295 294 293 293 293 292 292 291 290 290 290 290 290 290 289 290
313 312 311 310 310 309 305 304 303 300 299 297 297 298 297 296 295 294 293 292 292 291 290 289 289 289 289 289 289 288 288 288
312 311 309 309 309 309 302 301 301 299 298 299 299 298 296 295 294 293 292 292 291 289 289 289 289 289 288 288 287 287 286 286
312 309 309 309 307 303 302 302 302 301 300 298 297 297 295 294 293 292 292 290 289 289 288 288 288 288 287 287 286 285 285 285
310 309 308 307 304 301 302 302 302 299 298 298 298 295 293 292 292 291 290 289 288 288 287 287 287 286 285 284 284 283 284 284

GFSFLT1_925_thetae_003.txt.gz
Theta_e
316 316 316 315 314 313 312 311 311 309 311 310 309 309 309 309 313 312 311 309 307 307 307 307 306 305 305 305 304 304 304 303
316 315 314 313 313 312 311 310 310 309 309 309 308 308 308 308 308 308 311 308 307 306 305 307 306 305 304 305 304 304 304 304
314 315 314 313 312 311 311 310 309 309 308 308 308 307 307 307 307 308 309 308 307 306 305 305 304 304 304 304 305 305 304 303
313 314 314 314 313 313 312 311 310 310 309 308 307 307 307 308 307 308 307 307 307 306 306 305 305 304 304 304 303 303 304 305
313 313 313 314 314 314 313 313 312 312 311 309 308 308 308 307 307 306 306 307 306 307 306 306 305 303 303 304 303 302 303 304
313 314 314 314 314 314 314 313 312 312 312 311 309 308 307 307 307 306 306 306 307 307 306 304 303 303 302 301 301 300 299 299
312 314 315 314 314 313 313 313 313 313 313 312 311 310 308 307 307 306 306 304 303 302 302 302 301 300 299 298 298 297 296 295
313 314 314 315 315 314 314 314 314 314 313 313 312 311 310 308 307 307 304 302 299 299 299 299 299 299 298 297 296 295 294 294
314 315 314 314 314 314 314 312 312 312 313 311 310 311 311 309 306 306 302 299 297 297 296 296 295 295 295 296 296 294 294 294
315 314 314 314 313 312 311 310 310 309 309 308 308 308 309 306 303 299 297 296 295 295 296 295 294 295 295 294 294 293 293 294
312 312 314 313 312 311 311 310 309 308 306 305 304 303 301 298 297 296 295 295 295 295 295 295 296 294 293 292 293 293 293 293
310 311 313 312 311 311 310 309 309 305 304 302 301 300 299 297 296 295 296 295 295 295 295 294 294 292 292 292 293 292 292 292
310 310 311 311 311 310 310 308 305 303 302 300 298 297 295 294 294 294 294 294 294 294 293 293 292 293 292 292 292 291 291 291
310 310 310 309 310 309 309 308 303 302 300 298 296 295 294 294 295 295 294 293 293 293 292 293 292 292 291 290 290 290 290 290
310 309 309 309 308 308 308 302 302 302 299 297 296 295 294 295 294 294 294 293 293 292 292 292 292 290 290 289 290 289 289 289
310 310 308 307 308 308 303 303 302 301 298 296 296 297 297 296 295 294 294 293 293 292 292 290 289 289 289 289 289 288 287 287
310 309 308 308 308 305 304 303 302 301 300 299 298 298 297 296 295 295 294 293 292 290 289 289 288 288 288 288 287 286 285 285
309 308 307 307 305 302 302 302 302 301 300 299 299 298 296 295 295 293 292 291 289 288 288 287 287 287 287 286 285 284 284 283
307 307 306 304 303 302 301 301 302 300 299 299 297 297 297 293 293 292 290 288 287 286 286 287 286 285 285 284 284 284 283 283

GFSFLT1_925_thetae_006.txt.gz
Theta_e
314 313 314 314 314 313 312 312 311 311 309 310 311 310 310 310 310 311 312 313 309 307 308 308 307 305 305 305 304 304 304 304
312 313 313 313 312 312 312 312 311 310 309 309 309 309 308 308 308 309 313 310 310 307 306 306 307 305 305 305 304 304 304 304
311 312 312 313 313 312 312 312 311 311 310 309 309 308 308 308 307 307 309 310 310 309 307 305 305 305 305 304 304 305 304 303
311 312 313 313 313 313 313 313 313 312 311 310 309 308 307 307 307 307 307 307 309 308 307 306 305 304 304 304 304 303 303 303
311 312 312 313 314 313 313 313 313 312 311 310 309 308 307 308 307 307 307 307 308 307 307 306 305 304 304 304 302 301 301 300
311 311 312 313 313 313 313 313 313 312 312 311 311 309 308 308 308 307 307 306 306 307 306 305 305 304 303 300 299 296 295 295
311 313 313 313 314 313 314 313 313 312 312 312 312 311 311 309 309 307 307 305 306 306 306 305 302 299 300 301 298 296 297 296
310 311 311 313 313 313 311 311 310 310 310 310 310 310 310 310 309 307 306 304 302 301 299 298 297 295 295 296 297 298 299 297
311 311 311 312 312 311 311 311 310 309 309 309 309 308 308 308 309 307 304 301 298 296 295 295 296 297 296 297 297 297 296 294
309 312 311 310 310 310 310 310 309 308 307 306 306 305 305 305 305 302 299 296 295 295 296 297 297 297 298 296 293 293 293 292
309 310 311 311 311 311 310 309 308 305 303 303 303 303 302 301 299 296 295 295 296 298 299 298 295 294 293 293 292 292 292 292
308 310 310 310 310 310 308 308 306 302 303 302 301 300 298 297 295 295 295 295 298 297 294 293 293 293 292 292 292 292 292 291
308 309 310 309 309 308 308 308 304 303 303 301 300 298 296 295 294 294 294 294 295 293 293 293 292 292 293 292 291 291 290 289
308 308 309 309 309 308 308 306 302 304 304 300 297 295 294 294 294 294 294 294 293 293 293 292 292 292 292 291 290 289 289 289
309 307 308 308 308 307 307 302 303 303 303 298 295 294 293 294 294 294 294 293 293 293 292 292 292 291 290 289 289 288 288 288
308 307 306 307 307 307 305 303 302 302 302 296 294 295 295 295 294 294 296 295 293 293 292 290 289 288 287 288 288 287 286 285
308 308 307 307 306 305 303 302 301 301 300 299 298 297 297 296 296 294 295 294 292 290 289 287 287 286 287 287 286 285 284 283
307 307 307 306 304 303 301 301 301 300 300 298 299 298 296 294 294 295 294 290 288 287 286 286 286 286 285 285 284 283 283 283
307 306 305 304 303 301 301 300 299 300 299 298 298 297 295 293 291 289 288 287 286 286 285 285 285 285 285 283 282 282 283 283

GFSFLT1_925_thetae_009.txt.gz
Theta_e
311 312 313 313 315 315 313 312 312 310 310 310 310 310 310 310 310 310 310 312 313 311 309 310 311 308 305 305 305 304 303 303
310 311 312 313 313 313 312 312 311 310 310 309 309 309 309 309 308 308 309 308 311 312 309 307 308 307 305 305 305 304 303 303
309 310 312 312 312 312 311 312 311 311 311 311 310 310 309 308 308 308 307 307 307 312 310 307 306 306 306 305 305 304 304 304
309 310 311 311 311 312 312 312 312 312 311 311 310 309 308 309 309 308 308 307 307 310 310 309 307 305 306 305 305 304 304 302
309 311 311 312 313 312 312 312 311 311 310 310 309 308 307 309 310 310 310 309 307 306 307 310 308 305 305 305 303 303 303 301
311 310 311 311 311 312 312 312 312 312 311 311 311 310 310 310 309 308 308 307 306 306 306 308 307 304 303 303 301 296 296 295
311 310 311 312 312 312 312 311 311 310 310 309 308 308 308 308 308 308 308 308 307 305 305 305 305 303 299 296 296 297 298 297
308 309 310 311 310 310 311 311 310 309 309 308 307 307 307 306 306 306 307 306 304 302 303 301 299 297 296 298 298 298 298 298
308 309 309 309 310 310 310 309 308 308 308 305 304 305 304 304 304 304 304 303 299 297 296 297 297 297 297 296 296 296 295 293
309 309 309 309 310 310 309 308 308 308 303 304 304 304 303 303 303 302 301 299 295 296 297 298 298 299 298 296 294 292 293 293
308 308 310 310 309 309 309 308 307 306 304 305 305 303 301 301 301 300 298 295 296 297 300 299 297 295 294 293 293 292 292 292
307 308 309 309 309 309 308 307 307 304 304 304 303 302 298 296 297 295 295 296 296 295 296 294 293 293 293 293 292 292 291 290
307 309 309 309 308 308 307 307 306 303 304 303 302 301 297 294 294 294 295 295 294 293 293 292 292 292 292 292 291 291 290 289
308 308 308 308 308 307 307 306 303 303 302 301 301 299 295 294 294 294 294 294 293 292 292 292 292 292 292 291 289 289 288 288
308 308 307 307 308 306 306 305 303 302 301 301 300 295 293 293 293 293 294 295 294 293 292 292 292 290 289 288 287 287 288 287
308 308 306 307 307 306 305 303 301 300 300 299 295 293 293 293 295 295 295 294 293 293 292 290 288 287 286 286 287 287 286 285
308 306 306 306 306 305 304 302 300 300 300 298 297 297 296 295 295 293 293 293 292 289 287 286 286 286 286 286 285 285 284 283
306 305 305 306 304 303 301 300 300 299 299 299 298 297 297 296 295 293 290 289 287 286 285 285 285 285 285 285 284 283 283 282
305 305 304 302 302 300 299 299 298 297 293 292 293 293 293 292 290 288 287 286 285 284 284 284 284 284 283 282 282 282 282 282

GFSFLT1_925_thetae_012.txt.gz
Theta_e
310 311 313 314 316 316 317 315 314 313 312 310 310 310 310 310 310 309 309 309 310 311 312 311 310 309 310 309 305 304 304 304
309 310 311 313 313 316 314 313 312 311 310 310 310 310 310 310 310 310 309 308 308 309 311 312 311 309 308 308 306 305 304 304
308 310 312 313 314 313 312 312 310 310 309 309 308 308 309 309 310 310 309 308 308 308 308 309 311 309 308 308 306 305 304 304
309 309 311 311 311 312 311 310 309 308 308 308 309 309 309 310 311 310 310 310 308 307 307 307 308 310 308 307 306 305 304 303
308 309 309 310 310 310 309 309 309 310 309 309 309 308 308 308 308 307 307 308 307 307 306 305 307 310 307 306 305 304 303 302
308 308 308 309 309 310 310 310 310 310 309 308 308 306 305 305 305 306 304 304 305 305 306 305 304 306 306 304 303 302 301 299
308 308 310 310 310 310 310 310 310 309 309 308 305 303 303 303 304 303 304 303 304 304 305 303 303 302 299 297 297 297 298 298
305 306 308 309 310 310 310 309 308 308 307 304 305 305 304 303 303 303 302 302 302 302 301 301 298 297 297 297 297 296 297 297
306 307 308 309 309 309 309 308 308 307 307 305 305 305 304 302 301 302 301 301 299 298 297 297 297 297 298 297 297 296 294 293
307 308 308 309 309 309 308 308 307 307 306 304 305 305 303 302 301 300 299 298 296 297 297 298 298 299 298 296 294 292 292 292
307 308 310 310 309 308 308 307 307 306 306 304 305 304 301 300 300 298 297 297 296 297 298 296 295 295 296 293 293 293 293 292
307 308 309 309 309 308 308 306 306 306 304 303 303 300 300 300 296 295 295 296 296 295 294 294 292 292 293 293 292 292 291 291
306 308 308 309 309 308 308 306 305 305 302 302 300 300 299 296 293 294 295 294 293 292 293 293 293 292 292 292 292 291 290 289
306 308 308 309 309 308 308 306 305 303 301 300 300 298 294 293 293 293 293 294 294 294 293 293 293 292 291 290 288 288 287 287
308 306 307 308 307 307 306 305 303 301 300 300 297 294 292 292 293 295 295 295 295 294 293 292 290 288 287 286 286 286 286 286
307 306 307 305 305 305 304 303 301 300 299 299 296 295 294 295 295 295 295 295 294 293 293 290 287 286 286 286 286 286 286 285
306 305 304 304 305 303 301 300 299 299 299 298 298 298 297 296 294 293 293 292 292 290 286 285 285 285 285 285 285 285 284 283
302 302 303 304 301 300 299 299 298 298 294 293 292 292 292 292 292 291 289 287 286 285 285 284 284 284 283 283 283 283 283 282
302 302 302 300 299 298 297 294 293 292 291 292 293 293 291 289 288 287 286 285 285 284 284 284 283 282 282 281 282 282 281 281

GFSFLT1_925_thetae_015.txt.gz
Theta_e
311 311 312 315 320 321 319 318 317 315 315 313 311 310 310 310 310 309 309 309 309 309 309 310 310 311 311 310 311 310 308 306
310 310 311 313 315 317 317 317 314 313 313 310 309 309 309 309 309 309 309 308 308 307 307 308 309 312 312 310 310 309 308 305
310 310 311 311 313 314 314 310 309 308 307 307 307 307 309 310 310 310 309 309 308 308 307 307 308 310 310 311 309 308 307 306
312 310 310 309 309 308 308 307 307 308 309 309 309 309 309 309 308 307 306 306 305 304 305 305 306 308 308 309 309 308 308 306
311 310 309 308 308 309 310 309 309 309 308 308 306 306 306 305 305 304 303 304 304 304 304 304 305 306 307 307 307 307 306 307
310 309 309 308 309 309 309 309 309 308 307 306 305 305 305 304 304 302 301 301 302 303 302 302 303 304 305 304 304 303 303 304
308 309 309 309 309 309 309 309 308 308 306 306 305 305 305 304 304 303 302 301 301 301 301 301 302 301 299 299 299 299 299 299
311 310 310 309 309 309 308 308 308 307 306 305 305 305 305 304 303 302 301 300 300 299 299 299 299 298 298 298 297 296 296 295
311 310 310 309 309 308 308 307 307 306 305 304 305 305 304 303 301 300 299 298 298 298 298 298 298 298 298 298 296 295 294 293
311 310 310 310 309 308 308 308 305 305 305 305 304 304 303 300 300 299 298 296 297 298 298 298 298 297 296 296 295 293 292 292
312 311 310 310 309 308 308 308 306 305 305 304 303 302 300 299 298 297 295 296 298 298 298 295 294 294 293 294 295 295 294 294
312 310 310 309 309 309 308 307 306 305 304 302 301 299 299 297 294 294 294 296 297 294 294 294 294 293 293 292 293 293 293 293
311 310 309 309 309 308 307 307 306 304 302 301 299 298 296 293 293 294 294 293 293 294 294 294 293 293 292 291 291 290 290 289
311 310 309 308 307 306 306 305 303 302 300 299 298 296 294 292 294 294 295 295 295 294 294 293 291 290 288 287 287 287 287 287
311 309 307 305 304 304 304 302 301 300 299 298 297 296 295 294 295 295 295 295 294 294 293 292 292 288 287 286 286 287 287 286
309 306 304 304 304 303 301 300 299 299 299 298 297 297 296 296 295 293 293 293 293 293 291 287 285 285 285 286 286 286 286 285
304 303 302 302 303 300 299 298 298 298 297 296 293 293 293 293 293 293 293 291 287 286 285 285 285 284 284 283 283 284 284 284
301 301 301 302 300 298 298 296 295 294 294 293 293 293 292 291 289 288 287 286 285 285 285 284 284 284 282 282 282 282 282 282
301 301 302 300 297 297 296 294 294 293 293 293 292 290 288 287 287 286 286 285 285 284 284 284 283 283 281 281 281 282 282 282

GFSFLT1_925_thetae_018.txt.gz
Theta_e
324 321 318 318 322 325 328 327 324 323 320 319 316 315 315 314 314 314 313 313 313 314 314 315 316 316 315 314 315 315 314 313
317 316 316 317 321 323 323 323 319 317 316 314 314 314 313 313 313 313 313 312 312 312 312 313 313 313 314 315 314 314 315 313
317 317 317 317 317 316 315 313 312 311 311 311 312 312 313 313 313 312 311 310 309 309 309 310 310 310 311 312 313 314 314 313
317 316 315 315 315 314 313 313 313 313 312 312 313 313 313 312 310 309 308 307 307 307 307 308 308 308 309 310 311 312 313 313
315 315 315 315 314 314 313 313 312 312 311 311 311 310 310 309 308 307 307 306 305 305 305 306 306 307 307 308 308 309 310 311
316 315 314 314 314 314 313 313 312 312 311 309 309 310 309 308 308 307 306 305 304 304 304 304 305 306 306 306 306 307 307 306
315 314 314 314 314 314 313 312 311 311 310 309 308 308 308 307 306 305 303 303 302 302 303 303 304 304 304 303 301 299 299 299
316 315 315 314 314 313 312 312 311 310 309 308 307 307 306 306 305 303 303 302 302 302 302 303 303 302 301 300 299 297 296 295
316 314 314 314 314 313 312 312 310 309 308 307 306 306 306 305 303 302 302 301 301 301 302 302 302 301 301 298 297 296 295 292
315 314 314 314 313 313 312 312 311 310 308 308 307 306 305 303 302 301 300 300 300 301 301 301 300 298 298 297 296 295 295 295
315 314 314 313 312 313 312 311 310 310 309 307 306 305 303 301 299 298 298 299 300 301 300 298 297 296 296 295 295 295 296 295
315 314 313 312 312 312 310 310 310 308 306 305 304 302 300 298 298 297 298 299 299 298 296 296 296 295 295 296 295 294 294 294
313 313 312 312 311 309 308 307 306 305 304 303 302 300 298 298 297 297 297 297 297 296 296 296 295 295 294 293 292 292 291 291
313 313 312 310 308 306 305 304 304 303 301 301 300 299 298 297 297 297 297 297 296 296 296 295 293 292 292 292 291 290 290 290
313 312 310 308 305 304 304 303 301 300 301 300 300 299 298 297 297 297 296 295 295 295 294 293 292 289 288 288 288 288 288 288
311 309 305 304 304 304 302 300 299 300 300 299 298 297 295 296 295 294 294 293 293 291 290 289 288 288 287 286 286 286 287 287
307 304 302 302 303 302 299 299 299 298 297 297 296 295 295 294 293 292 291 290 289 289 288 288 288 287 285 283 283 284 285 285
305 303 302 303 303 299 299 298 297 297 296 295 295 295 293 291 291 289 289 288 288 288 288 287 287 286 284 282 282 282 284 285
303 302 302 303 300 299 298 297 296 296 296 295 293 292 291 290 289 288 288 288 287 287 287 286 286 285 283 282 281 282 284 284

GFSFLT1_925_thetae_021.txt.gz
Theta_e
328 325 324 322 324 326 328 331 331 327 324 322 319 318 317 317 316 316 316 316 316 316 316 316 316 316 315 315 316 317 317 316
322 321 321 322 325 327 328 328 323 321 320 318 317 317 316 316 316 316 316 315 314 313 313 312 312 312 312 313 314 315 316 316
321 321 321 320 320 320 319 318 317 316 315 315 315 316 315 316 316 314 313 312 311 310 309 310 309 310 310 311 312 313 314 314
320 320 320 319 319 317 317 316 316 316 315 315 315 315 315 314 313 313 312 312 310 309 308 308 308 308 308 309 309 310 312 312
319 319 319 319 318 317 316 316 315 315 314 313 314 314 314 314 313 313 312 311 309 307 306 306 307 307 307 308 308 309 310 310
319 318 318 318 318 318 317 316 315 314 314 313 313 313 313 312 311 310 309 307 306 305 305 305 306 306 307 307 307 307 306 306
318 317 317 318 317 317 316 315 315 314 314 313 312 311 310 309 308 307 306 305 304 304 304 304 305 306 306 305 302 301 300 300
319 318 318 317 317 316 316 315 315 313 312 311 310 309 308 308 307 306 305 304 303 302 303 304 304 304 302 301 301 300 298 297
318 317 317 317 316 316 316 315 314 313 312 311 310 310 308 307 306 305 303 301 301 302 303 303 302 302 300 300 300 299 298 297
318 317 316 316 315 315 315 314 313 312 312 311 310 308 307 306 304 301 300 300 301 301 302 301 300 298 298 297 298 298 298 297
317 316 315 315 314 314 313 312 311 311 309 309 308 306 305 303 301 300 300 300 301 301 301 299 298 298 297 297 297 297 297 296
316 314 314 314 313 313 311 310 309 308 307 306 304 303 302 300 300 299 299 299 299 298 298 297 298 297 296 296 295 295 295 295
315 314 313 313 312 311 309 308 306 305 304 302 302 301 301 300 299 299 298 298 298 298 298 296 296 295 295 294 294 293 293 293
314 313 312 311 310 309 307 306 304 303 301 301 301 301 301 300 299 298 298 297 297 297 297 296 295 295 293 291 291 290 290 290
313 312 311 309 307 305 305 304 302 301 300 300 299 300 298 297 297 297 296 295 294 293 293 292 291 290 290 289 289 288 288 288
313 311 309 306 304 304 304 302 301 299 299 299 298 298 297 296 296 295 294 293 291 291 290 290 290 290 289 288 287 286 286 287
309 306 305 303 303 304 302 301 300 298 298 298 297 297 296 295 294 293 292 290 290 290 290 289 289 289 287 286 284 284 284 285
305 304 304 303 303 303 301 300 299 298 297 297 296 295 294 294 292 291 290 290 289 289 289 289 289 288 286 285 284 284 283 285
306 304 303 302 302 302 300 299 299 298 297 297 296 295 294 293 291 290 290 289 289 289 289 288 288 287 286 284 283 283 284 284

GFSFLT1_925_thetae_024.txt.gz
Theta_e
327 325 324 324 325 326 327 332 332 328 325 323 321 319 319 318 317 317 317 316 316 316 315 314 314 313 313 314 314 314 315 316
323 323 323 325 327 328 327 326 322 321 321 318 316 317 316 316 317 316 316 315 314 312 311 311 311 311 312 311 312 312 313 314
322 322 321 320 320 319 319 318 318 317 317 316 316 316 316 316 315 315 314 313 312 312 311 310 309 309 309 309 310 311 312 312
322 321 321 319 319 318 318 317 317 316 314 315 315 315 315 315 315 314 314 313 311 309 310 308 307 307 308 307 308 308 311 310
320 320 320 319 318 318 317 316 316 315 315 314 314 315 315 314 313 311 311 309 308 306 305 305 305 306 306 307 308 308 306 306
320 319 319 319 319 318 317 316 316 315 315 315 314 313 312 311 310 310 308 308 306 305 304 304 304 305 305 307 305 303 302 301
319 318 319 319 318 317 317 316 316 315 314 313 312 311 310 310 310 308 307 306 304 303 302 303 303 305 305 304 302 300 300 299
320 319 318 317 317 317 317 316 316 315 313 313 312 311 311 309 308 306 304 303 302 301 302 303 304 303 302 301 300 300 298 298
319 318 317 317 317 316 315 315 315 313 312 312 311 309 308 307 305 303 301 301 301 301 303 303 302 301 300 299 298 299 298 298
318 317 316 316 315 314 314 314 313 311 310 309 309 307 306 304 302 301 300 300 300 301 299 300 299 298 297 297 297 296 297 297
318 316 315 315 314 314 312 311 310 310 309 307 305 304 303 303 301 300 300 300 299 299 299 298 298 298 297 296 296 296 296 296
317 315 314 314 313 312 311 309 308 307 305 304 302 302 302 302 301 300 300 299 298 298 298 298 297 297 296 295 294 294 294 294
315 314 313 312 312 311 310 307 306 305 303 302 301 301 302 300 299 298 298 298 298 297 297 297 296 296 295 295 294 292 292 292
314 313 313 311 310 308 307 306 305 303 301 300 300 300 300 297 297 297 297 296 296 295 294 292 292 291 291 291 290 290 289 288
313 312 310 309 308 306 305 305 303 302 300 300 299 299 299 297 297 296 296 295 294 292 291 291 290 290 290 290 289 289 287 287
311 310 308 307 305 304 304 304 302 301 300 299 299 298 297 297 296 296 294 293 291 291 290 290 290 290 289 288 287 286 286 285
309 307 306 305 304 303 304 303 301 300 299 299 298 298 297 296 295 294 293 291 290 290 290 290 289 289 288 286 285 284 285 285
308 307 306 304 303 302 302 302 301 300 299 299 298 298 297 295 294 293 291 290 290 290 289 289 289 288 287 286 285 284 284 283
307 305 304 303 301 301 301 301 301 301 299 299 298 297 296 295 294 292 291 290 290 290 290 289 288 287 287 285 284 283 283 282

GFSFLT1_925_thetae_027.txt.gz
Theta_e
323 325 327 327 328 330 330 328 326 325 324 323 321 321 320 319 318 317 316 315 315 315 314 311 311 311 310 310 309 309 309 309
320 320 321 321 320 320 319 320 317 317 316 316 316 316 315 315 316 316 314 314 312 312 311 311 310 309 309 308 307 308 308 308
320 319 318 318 318 317 317 317 317 315 315 316 315 315 315 316 315 314 313 311 309 308 307 306 306 306 306 307 307 306 309 309
319 319 318 317 317 317 316 316 315 314 314 314 314 314 314 313 312 310 309 308 307 305 304 304 304 304 306 306 307 308 305 304
319 318 318 318 317 317 316 316 316 315 315 315 314 314 312 311 310 309 308 307 305 305 303 302 302 303 303 305 306 306 305 300
316 318 319 318 318 317 316 316 315 315 314 314 313 312 310 310 309 308 306 306 305 302 301 300 301 303 304 305 304 302 301 300
316 318 318 318 317 317 317 316 316 314 313 313 312 311 311 309 307 306 304 303 301 300 300 302 303 303 303 302 301 300 299 298
313 315 317 318 317 317 316 316 315 313 312 311 310 309 307 306 304 302 301 301 299 299 302 301 301 301 300 300 299 298 298 298
314 315 316 316 315 314 314 314 313 311 310 309 308 306 305 304 302 301 300 299 299 300 299 300 300 299 298 298 298 296 297 296
314 314 314 313 313 313 312 311 310 309 307 305 304 303 302 302 302 300 301 300 299 298 298 298 298 298 297 297 296 296 296 295
311 313 313 313 313 312 311 310 308 306 304 303 302 301 302 302 301 299 299 299 298 298 298 298 297 297 297 297 296 294 293 294
311 312 312 311 311 311 309 307 306 304 303 302 301 300 301 301 301 297 296 296 297 297 296 296 296 294 294 294 294 293 293 293
310 312 311 309 309 308 307 305 305 303 302 301 300 300 300 300 299 296 295 297 296 295 294 292 291 291 291 291 291 290 289 288
308 308 308 308 307 306 305 304 303 302 301 300 299 299 299 299 297 297 297 296 295 293 291 290 290 290 290 290 290 289 288 288
307 306 306 306 306 304 303 304 303 303 301 300 299 299 299 298 297 296 296 295 294 291 290 290 290 289 289 288 288 287 286 285
307 305 306 306 304 303 303 303 302 302 301 300 299 299 298 297 296 296 295 294 292 290 290 289 289 289 289 288 287 286 286 285
306 306 306 305 303 302 300 300 302 301 300 300 300 298 297 298 297 295 294 292 290 290 289 289 289 289 288 287 286 286 284 283
305 305 305 303 302 301 300 299 298 297 297 299 297 297 297 297 295 293 293 291 290 290 289 289 289 288 287 286 285 285 284 283
304 304 303 302 301 299 298 297 296 296 297 296 297 296 296 295 295 294 293 290 290 290 289 289 288 287 286 285 285 285 284 283

GFSFLT1_925_thetae_030.txt.gz
Theta_e
319 321 325 328 330 333 331 331 328 327 325 321 320 319 316 317 316 315 315 314 312 311 310 310 309 309 308 307 307 306 306 305
317 317 317 317 319 321 317 317 316 318 316 316 315 315 314 314 313 312 311 309 308 307 305 305 305 304 305 306 306 305 305 306
316 316 316 316 316 316 315 314 314 315 314 314 314 314 313 311 310 309 308 307 306 305 304 303 302 302 302 303 304 305 306 306
316 316 316 316 316 316 315 315 315 315 314 314 314 313 313 311 309 308 307 307 306 305 303 300 299 299 302 302 303 305 305 304
316 316 317 317 316 316 316 315 315 314 314 314 313 312 311 310 309 308 308 307 307 305 304 300 299 301 303 304 304 304 302 300
315 316 317 317 316 316 315 315 315 314 313 313 312 311 310 309 307 307 306 304 302 300 298 300 301 302 303 303 301 300 299 298
315 317 317 317 316 316 316 315 313 313 312 312 311 310 309 308 305 303 302 300 299 299 300 300 299 299 300 300 299 299 298 297
314 316 317 317 316 316 315 314 312 311 310 309 308 307 306 305 303 302 300 299 299 299 299 299 299 299 299 299 298 297 297 296
312 313 314 314 313 314 314 311 310 309 308 307 305 304 302 302 301 300 300 299 299 298 298 298 298 298 298 297 296 296 296 295
310 311 312 313 313 312 311 310 309 307 305 303 302 301 301 301 301 300 300 299 297 297 298 297 296 297 296 296 296 295 294 293
310 311 311 311 311 309 309 308 306 304 303 302 301 301 300 301 301 301 300 296 294 295 296 295 295 294 294 293 293 293 293 292
308 308 308 308 308 307 307 306 305 304 303 302 301 300 300 300 300 299 299 296 295 295 295 294 291 291 291 291 291 291 291 290
306 307 306 306 306 305 306 305 304 303 302 301 301 300 299 299 299 299 298 296 295 295 294 291 290 290 290 289 289 289 288 287
305 306 305 305 305 304 303 303 303 303 302 302 300 299 299 299 299 298 297 296 296 294 292 290 290 289 289 289 288 288 287 286
306 305 305 305 304 303 302 302 302 301 301 300 300 300 298 298 298 297 296 296 293 294 291 290 289 289 289 288 288 287 286 286
306 305 305 305 304 302 300 299 298 297 297 297 298 298 297 297 297 296 296 295 293 292 290 289 289 289 288 288 287 286 285 284
304 304 304 304 302 300 298 297 296 296 296 296 296 296 296 296 297 296 295 294 292 290 289 289 289 288 287 287 286 285 285 284
303 303 302 299 298 297 297 296 295 295 296 296 296 295 296 295 295 295 295 293 292 289 289 289 288 287 286 286 285 285 285 284
302 299 297 296 296 296 295 295 295 295 294 295 295 294 293 293 294 294 294 290 290 290 288 288 287 285 284 284 284 284 283 282

GFSFLT1_925_thetae_033.txt.gz
Theta_e
316 321 328 331 332 331 330 328 327 323 319 316 316 315 314 314 313 313 312 310 309 308 307 306 306 305 304 303 304 303 304 305
316 317 319 323 327 327 324 324 325 322 316 316 314 312 312 312 311 311 311 310 309 308 307 306 304 303 300 300 301 301 303 304
314 316 317 317 317 315 315 315 315 315 314 314 314 313 311 311 310 310 309 308 307 306 305 305 304 301 300 301 303 304 305 304
315 315 315 315 315 315 314 314 314 314 314 314 313 312 311 310 309 307 306 305 304 303 302 300 299 299 302 303 303 303 303 301
316 314 314 315 315 315 315 314 314 314 314 314 313 313 311 309 307 306 305 304 303 301 299 298 298 299 300 300 301 301 300 299
314 315 315 314 314 314 314 314 314 314 313 313 312 311 310 308 307 306 304 302 301 299 299 299 299 298 298 299 300 299 298 298
315 315 315 315 314 314 314 314 313 312 312 312 311 310 309 307 305 304 303 301 300 299 299 299 298 298 298 298 299 298 297 296
312 314 315 315 315 314 314 313 312 311 310 309 309 308 306 305 303 302 301 300 300 299 299 298 298 297 297 298 297 296 296 296
313 314 314 314 313 313 312 311 310 309 308 307 305 303 302 302 302 301 300 300 300 299 296 297 296 296 297 296 296 295 294 293
309 310 311 311 311 310 309 309 308 307 304 302 302 302 302 301 301 300 300 300 299 296 296 297 296 296 296 295 294 293 293 292
307 308 309 310 310 308 308 308 307 304 304 304 303 301 301 301 300 300 300 299 297 295 296 296 295 294 293 294 293 292 293 292
306 306 306 306 306 305 306 306 305 304 303 302 302 302 301 300 300 299 299 298 296 296 296 295 293 291 290 290 290 290 290 289
305 305 305 305 304 304 305 304 304 303 303 302 300 299 299 299 299 299 298 298 296 296 295 294 293 291 290 289 289 289 288 287
304 304 304 304 304 303 302 302 303 301 301 300 300 299 298 298 297 297 297 297 296 296 294 292 291 290 289 289 288 288 287 286
305 304 304 304 304 302 300 299 298 297 297 297 297 297 296 294 294 294 295 296 296 294 294 292 290 289 289 288 287 287 286 285
305 304 303 302 301 299 298 297 296 296 296 296 296 295 294 294 294 295 295 296 295 294 293 291 289 288 288 287 286 286 285 284
304 302 300 298 297 297 296 296 295 295 295 295 295 294 294 294 293 293 295 295 294 293 291 288 289 288 287 287 286 285 284 284
302 299 297 296 296 295 295 295 294 294 295 295 294 294 293 293 292 291 292 293 294 290 289 289 288 286 285 285 285 284 284 283
297 296 295 295 295 294 294 294 294 294 294 293 293 292 292 291 291 292 291 290 290 290 289 287 285 284 284 283 283 281 280 279

GFSFLT1_925_thetae_036.txt.gz
Theta_e
316 322 324 326 328 328 328 327 325 321 319 314 314 314 314 314 314 312 312 311 310 308 308 306 306 305 305 303 301 300 302 304
316 322 326 327 328 329 328 327 322 315 314 313 313 313 313 312 311 310 309 308 308 307 306 305 304 302 300 300 301 302 304 303
315 318 319 319 319 320 320 318 315 315 314 313 313 312 311 310 309 308 307 307 306 305 304 303 299 297 296 299 301 302 302 300
316 315 314 313 313 314 314 314 314 314 314 314 313 312 310 309 308 307 306 305 305 304 302 299 297 297 297 297 298 300 300 299
314 313 313 314 314 314 314 314 314 314 314 313 312 312 311 309 308 306 305 305 303 302 299 298 298 298 297 297 297 298 299 298
312 313 313 313 314 314 314 314 314 313 313 313 312 312 310 308 306 306 305 303 301 300 299 299 299 298 298 298 298 299 298 297
313 313 314 313 313 314 313 313 313 313 312 312 311 310 309 307 306 305 303 300 299 299 299 299 298 297 297 297 298 298 297 296
312 313 313 313 314 313 312 312 312 311 310 310 309 308 307 306 304 303 301 300 299 299 299 299 296 296 296 297 297 296 296 295
313 314 314 314 312 313 312 312 310 309 308 307 306 305 304 303 302 301 300 300 299 299 299 298 296 296 295 295 295 294 294 293
309 310 310 310 310 309 309 310 309 308 307 305 304 302 302 301 301 300 300 299 299 299 298 296 297 296 296 296 295 293 293 292
306 307 308 308 307 307 307 308 307 305 303 302 302 302 301 300 300 300 299 299 298 298 296 296 296 296 294 293 293 293 291 291
304 305 305 305 305 305 306 306 305 304 303 302 301 300 299 299 299 299 298 298 297 297 295 295 294 294 292 291 291 289 289 289
303 304 304 304 304 304 305 304 304 302 301 301 300 299 298 298 296 295 294 293 293 295 295 295 295 293 292 290 289 289 288 287
303 303 303 304 303 302 301 300 301 299 298 297 296 297 296 294 293 293 293 294 294 295 294 293 293 293 291 290 288 288 286 286
303 303 303 303 302 300 298 297 297 296 295 295 296 295 294 293 293 293 292 292 294 294 294 294 292 291 290 288 288 286 286 286
304 302 302 301 298 297 297 296 295 295 295 295 295 294 293 293 292 292 291 290 292 294 293 292 290 288 288 288 286 286 285 284
303 301 299 297 296 296 295 295 294 294 294 295 295 294 293 292 292 291 291 291 291 293 292 288 289 289 286 286 286 285 284 283
302 297 296 296 295 295 294 294 294 294 293 294 293 293 292 291 291 290 291 290 290 290 289 289 288 286 285 284 283 282 281 280
298 296 295 295 294 294 294 293 293 293 293 293 292 292 291 290 290 290 290 290 289 289 288 287 285 284 283 282 281 280 279 278

GFSFLT1_925_thetae_042.txt.gz
Theta_e
327 328 328 327 329 330 328 328 323 322 323 321 321 317 314 312 311 310 309 309 309 310 310 309 307 305 303 303 302 302 302 303
328 329 329 329 328 328 328 325 324 326 323 319 315 312 312 311 311 310 309 309 309 309 307 305 303 302 303 302 301 301 301 302
329 330 330 330 329 329 328 328 328 325 322 318 317 315 314 312 310 309 309 308 307 305 304 303 302 302 302 302 301 301 300 300
331 330 331 330 330 330 328 326 323 320 318 316 315 314 312 311 310 309 308 307 305 304 303 302 302 302 301 301 301 301 300 299
326 323 325 326 326 324 320 319 319 318 317 315 315 315 315 314 312 310 309 305 304 303 303 303 302 302 302 301 300 300 300 299
320 318 318 318 318 318 318 317 316 316 316 316 316 315 314 312 310 310 307 305 304 303 302 303 302 302 301 301 301 300 299 299
318 317 317 317 317 317 317 316 316 315 316 315 315 314 312 310 309 307 305 304 303 302 302 302 301 301 301 300 300 299 298 297
319 318 317 317 317 317 317 316 316 315 315 313 312 310 308 306 305 304 303 302 302 302 302 301 300 299 299 299 298 297 297 297
320 319 318 317 317 317 316 316 315 313 312 310 308 306 305 304 304 304 303 303 302 302 301 300 298 298 298 298 298 297 297 296
321 319 318 318 318 317 316 315 313 310 309 308 307 306 305 304 304 303 303 302 300 297 297 296 296 296 297 297 297 296 296 295
321 319 319 317 316 314 314 312 310 307 306 305 304 303 303 302 302 302 299 297 296 295 295 295 295 295 296 296 296 295 294 294
320 318 316 314 312 311 310 308 307 305 304 303 303 302 301 300 298 297 296 295 295 294 294 295 295 295 295 295 295 294 293 293
318 315 313 311 310 309 308 306 305 304 302 302 300 299 298 297 296 296 296 295 294 294 294 294 295 295 294 294 294 293 293 291
315 312 311 309 308 306 305 304 303 301 300 299 298 298 297 296 296 296 295 294 294 294 294 294 294 294 293 293 293 292 291 290
313 312 310 308 306 305 303 302 300 299 298 297 297 297 297 296 296 295 294 294 293 293 293 293 293 293 293 292 291 290 290 290
313 312 309 307 305 303 302 300 299 297 297 296 296 297 297 296 295 294 294 293 293 292 292 292 292 291 290 290 290 290 289 288
312 310 308 306 303 302 300 298 297 297 296 295 296 297 296 295 294 294 293 293 293 292 291 291 291 290 288 287 286 287 287 286
311 308 305 303 301 299 298 297 296 296 295 295 296 295 294 294 293 292 292 292 292 291 291 290 290 289 286 285 284 285 285 284
309 305 301 299 298 297 296 296 295 294 294 294 294 294 293 293 292 292 292 292 290 291 290 289 289 288 284 283 282 284 284 283

GFSFLT1_925_thetae_045.txt.gz
Theta_e
327 327 326 326 329 332 331 330 327 323 323 324 320 318 320 314 312 312 312 312 313 313 312 311 308 307 307 306 305 304 303 303
329 329 329 328 331 332 330 328 325 327 327 323 322 319 316 314 314 313 313 312 312 311 310 308 307 305 305 304 304 303 303 302
330 332 331 332 332 331 330 328 328 329 326 323 320 317 316 315 314 313 313 312 310 308 308 307 306 305 304 304 304 303 302 301
333 333 333 331 330 330 330 330 327 324 320 318 318 317 316 314 314 313 312 310 308 307 307 306 305 304 303 303 303 302 301 301
333 333 333 332 331 330 329 324 321 319 318 317 317 316 316 316 315 314 312 309 308 306 305 304 304 304 303 303 302 302 301 301
331 330 329 328 327 324 321 320 319 319 318 317 318 317 316 315 313 313 311 309 307 305 304 304 303 303 302 302 301 301 301 300
325 324 323 322 322 321 320 320 319 318 318 318 318 317 314 313 312 311 309 307 305 304 304 303 303 302 301 300 299 299 299 299
322 321 319 320 320 320 320 319 318 318 318 318 316 314 312 310 309 307 305 304 304 303 303 302 301 300 299 298 298 298 299 299
322 321 319 320 320 320 319 319 318 318 317 315 313 310 308 307 306 305 305 304 303 303 302 300 298 297 297 297 297 298 298 298
322 321 320 320 320 320 320 319 317 316 313 311 309 308 306 305 305 305 304 304 302 299 298 297 297 296 296 296 297 297 298 297
323 321 321 321 320 320 320 318 316 313 311 309 307 306 305 305 304 304 302 299 298 297 296 296 296 296 296 296 296 296 296 296
323 322 321 321 320 319 318 316 313 310 308 306 305 304 304 303 302 300 298 297 297 296 296 295 295 295 295 296 296 295 295 294
323 322 321 320 318 317 315 312 310 308 306 303 303 304 302 301 299 298 297 297 296 296 295 295 295 295 295 295 294 294 294 294
323 322 320 318 316 314 313 310 308 305 303 303 302 301 300 299 298 298 297 296 296 295 295 295 295 295 295 294 293 293 293 292
322 320 318 316 314 313 310 307 305 303 303 301 300 300 299 298 298 297 296 296 295 295 295 294 294 294 293 293 293 292 291 291
320 319 317 314 312 310 307 306 304 303 301 300 299 298 298 298 297 296 296 295 295 295 294 294 293 292 291 291 291 291 290 290
319 317 315 313 310 307 306 304 302 300 299 298 297 297 297 297 296 295 295 294 294 294 294 293 291 291 290 289 287 288 288 288
318 316 314 312 309 306 304 302 300 299 298 297 296 296 296 295 295 294 294 294 294 293 292 291 291 291 289 287 285 285 286 287
317 315 312 308 306 303 302 300 299 298 296 295 295 295 295 294 294 294 294 293 293 292 291 291 290 290 288 286 284 284 286 286

GFSFLT1_925_thetae_048.txt.gz
Theta_e
322 323 325 332 333 332 331 331 328 324 321 322 322 320 319 318 315 313 312 312 314 314 313 310 308 307 306 305 305 304 304 303
327 326 326 329 334 333 331 329 327 323 327 325 321 319 318 315 314 314 314 314 313 311 310 309 307 306 305 305 304 304 304 302
329 329 329 329 334 333 330 329 327 327 328 324 323 319 316 315 315 314 314 313 311 309 308 307 306 305 304 304 303 304 303 303
331 331 331 334 334 331 330 329 327 329 326 323 320 318 316 315 315 314 313 311 309 308 307 306 305 304 304 304 303 303 303 302
332 333 333 332 331 330 330 329 329 327 320 319 318 317 316 316 315 315 313 310 309 307 306 305 304 304 303 303 303 302 302 302
333 333 332 331 330 329 331 330 324 320 319 318 317 318 316 316 314 314 313 311 310 307 305 305 304 303 303 302 301 300 300 300
331 333 332 332 332 331 324 322 320 319 319 318 318 318 316 314 313 313 311 310 307 305 305 304 303 302 302 300 299 299 299 299
329 330 328 327 325 322 321 321 320 319 319 319 318 317 315 312 310 309 306 305 305 304 304 303 302 300 298 298 297 298 298 299
326 325 323 323 323 322 321 320 319 319 319 318 316 314 312 310 307 306 306 305 305 304 303 300 298 298 297 297 297 297 297 298
324 322 321 321 322 322 321 320 319 319 318 315 313 310 308 306 306 305 305 304 303 300 298 297 297 297 296 296 297 297 298 297
323 322 321 321 321 321 321 320 318 317 315 313 310 308 306 305 305 305 304 301 299 298 297 296 296 296 296 296 296 297 296 295
324 322 322 321 321 321 321 320 317 315 313 310 307 305 304 305 304 302 300 298 298 297 297 296 296 296 296 296 296 296 294 293
324 323 322 322 322 321 321 320 315 313 309 307 304 305 304 303 302 300 298 298 297 297 296 296 296 295 295 296 295 295 293 294
324 323 323 322 321 320 318 316 314 309 306 305 304 304 303 301 300 298 298 297 297 296 296 295 295 294 294 293 293 294 293 293
324 323 323 321 320 318 316 313 309 306 305 304 303 302 301 299 298 298 298 297 296 296 295 295 294 293 293 293 293 292 292 291
323 323 322 320 318 316 313 309 307 305 304 303 300 299 299 299 298 298 297 296 296 295 295 295 294 293 292 291 290 290 290 290
322 322 320 318 316 313 309 307 306 305 302 300 299 298 298 298 297 296 295 295 295 294 294 294 292 291 291 291 289 288 287 287
321 320 319 317 313 311 307 306 304 300 300 299 298 297 297 296 295 295 295 294 294 294 294 292 291 291 290 290 288 286 286 286
318 318 317 314 310 308 306 304 300 300 299 297 295 295 295 295 295 295 294 294 294 293 292 291 291 291 290 289 287 286 286 286

GFSFLT1_925_thetae_051.txt.gz
Theta_e
326 326 327 326 327 329 331 328 327 325 319 319 319 318 318 317 316 314 312 312 313 313 311 309 307 306 305 305 304 304 303 303
323 329 329 329 330 331 330 327 326 322 320 322 322 320 316 314 312 312 313 313 313 310 309 308 306 305 304 304 303 303 303 303
324 326 331 331 330 331 329 328 327 325 322 324 322 318 315 314 314 314 313 313 311 310 309 307 306 305 304 303 303 303 302 301
326 328 332 332 331 330 329 329 328 326 326 325 321 317 315 314 314 314 313 312 309 308 307 306 305 304 304 303 303 302 302 301
327 329 331 331 331 330 329 329 328 326 328 323 320 317 316 315 314 314 313 310 309 308 307 305 304 304 303 303 302 301 300 300
328 330 332 332 331 330 329 328 327 327 328 322 319 316 316 315 315 314 312 310 309 309 308 305 304 303 302 301 300 299 298 298
330 331 330 330 330 329 329 328 328 327 320 319 317 317 316 314 315 313 313 311 309 308 305 304 303 302 301 299 298 297 297 297
331 331 330 330 329 329 328 330 326 319 318 318 317 316 315 314 313 311 309 305 305 304 303 303 301 300 298 297 297 296 296 296
328 329 330 330 330 329 326 321 319 319 318 319 317 315 312 310 308 307 306 305 304 303 301 299 298 297 297 296 296 296 296 297
322 321 324 324 323 321 321 320 319 319 319 318 315 313 310 307 306 306 305 304 303 300 299 297 297 296 296 295 295 295 297 296
319 318 321 322 322 321 320 320 319 319 319 317 313 309 307 305 305 305 304 303 301 299 297 297 296 296 295 295 296 296 296 295
318 317 319 321 321 321 321 320 319 318 314 311 309 307 305 305 305 303 300 299 298 298 297 296 296 295 295 295 295 295 295 293
318 317 319 319 320 321 321 320 318 314 311 308 306 305 305 305 304 300 300 298 297 297 296 296 295 295 295 294 293 292 293 293
318 317 319 321 320 321 321 317 313 310 308 307 305 305 303 304 302 299 298 297 297 296 296 295 295 295 294 293 293 293 293 292
319 318 320 321 320 320 317 312 309 307 307 305 304 304 303 299 298 298 298 297 296 296 295 295 295 294 293 292 292 292 291 291
319 318 319 319 318 316 310 307 306 306 304 303 301 299 298 298 298 298 297 297 296 295 295 294 294 293 292 291 291 290 289 289
318 319 318 317 315 309 307 306 305 305 300 299 298 298 298 298 297 296 295 295 295 294 294 294 293 292 291 291 290 290 288 287
317 316 316 315 310 307 306 305 303 300 299 299 297 297 297 296 296 295 295 295 294 294 294 294 292 291 291 290 290 289 287 286
314 312 309 308 307 307 304 300 300 299 298 295 295 295 295 295 294 295 294 294 294 294 293 293 291 290 289 290 290 288 286 286

GFSFLT1_925_thetae_054.txt.gz
Theta_e
325 323 325 325 324 326 328 329 328 327 325 323 320 318 318 319 320 318 317 314 312 311 309 308 307 306 305 304 303 302 303 302
323 323 324 325 325 326 329 328 327 326 322 319 318 318 318 317 316 314 312 313 313 310 308 307 306 306 304 303 303 303 302 301
324 324 324 325 327 327 329 329 328 324 320 319 321 321 317 315 312 312 313 313 311 309 308 307 306 305 303 303 302 302 301 301
324 326 326 327 328 328 328 327 327 324 320 321 322 320 315 313 313 313 313 312 310 309 309 308 306 304 303 303 302 301 300 299
325 327 328 328 329 328 328 327 327 325 322 323 321 316 313 313 314 313 312 312 309 308 307 306 304 304 303 302 301 300 298 298
326 329 329 329 329 328 328 328 328 327 324 325 322 317 314 314 314 313 313 311 309 307 306 304 304 303 302 301 299 298 297 296
325 330 330 329 329 329 329 329 328 327 325 328 322 316 315 315 314 313 313 310 308 307 305 304 303 302 300 299 297 296 296 296
327 329 330 329 329 329 329 328 328 326 326 328 322 317 316 315 314 313 312 309 307 304 303 303 301 298 297 296 296 296 296 296
329 328 329 328 328 329 328 328 328 328 326 323 320 317 315 314 314 313 308 304 303 301 299 300 298 296 296 296 295 295 295 296
328 327 327 327 328 328 328 328 329 321 318 317 315 313 311 309 306 305 304 302 299 300 300 299 297 296 296 295 295 295 296 295
324 325 326 327 327 327 327 327 325 318 318 317 315 311 308 306 306 305 304 303 304 303 300 297 297 296 295 295 295 295 295 295
321 322 324 327 327 321 320 320 319 318 317 312 308 306 305 305 305 305 303 301 301 298 298 297 296 295 295 295 295 294 293 292
319 320 321 320 320 320 320 319 319 318 314 307 305 305 306 306 304 301 302 300 298 297 297 296 296 295 295 294 294 293 293 293
317 317 319 319 319 319 318 316 310 308 306 306 305 305 305 304 304 302 301 298 297 297 296 296 295 295 295 294 293 292 292 292
318 316 317 318 319 318 316 313 313 308 307 306 306 304 304 303 302 299 298 298 297 296 296 295 295 294 294 293 292 291 291 291
319 316 316 318 317 312 310 309 308 308 306 304 304 302 299 298 298 299 299 297 296 296 295 295 294 294 293 292 291 291 290 290
316 317 317 317 312 309 308 307 306 305 302 300 298 298 298 299 298 297 295 295 296 295 294 294 294 293 293 291 290 290 289 289
317 317 316 313 309 307 306 305 302 300 298 297 298 298 297 296 295 295 295 295 295 294 294 294 293 293 292 290 289 289 289 288
309 307 306 306 305 303 301 300 299 298 296 296 295 295 295 296 297 295 295 294 294 294 294 293 293 292 291 290 289 289 289 288

GFSFLT1_925_thetae_057.txt.gz
Theta_e
326 329 327 328 326 326 327 328 326 327 328 328 327 326 324 323 322 323 321 318 315 312 309 308 307 306 305 304 303 302 302 301
327 328 328 326 326 326 326 327 328 328 326 324 323 321 319 320 320 318 316 313 311 310 309 307 306 306 305 303 302 302 301 300
325 327 323 324 326 326 327 327 328 326 326 324 320 318 318 317 316 315 313 312 312 309 309 308 307 306 304 303 302 302 301 299
322 321 322 324 325 324 327 328 328 326 324 320 319 318 317 314 312 312 312 312 311 310 309 307 306 304 303 302 302 301 300 299
321 322 322 323 325 324 325 327 326 325 323 320 320 321 317 315 312 312 313 312 310 309 308 307 305 304 303 302 300 299 298 297
322 322 322 323 325 325 325 325 325 324 321 319 321 322 320 316 312 313 313 311 310 308 307 305 304 303 301 300 299 297 296 296
321 324 324 325 326 326 326 326 327 326 322 321 322 323 318 314 313 313 312 310 308 306 304 303 302 301 300 298 297 296 296 295
323 325 326 327 326 326 326 325 325 325 324 324 324 324 319 315 314 313 312 309 307 304 302 302 303 298 298 299 296 295 295 295
326 327 328 327 327 327 326 326 326 326 326 326 325 326 320 314 314 313 311 307 303 301 304 301 301 302 300 296 295 295 295 295
326 328 328 328 328 327 327 327 326 327 327 326 326 325 319 315 313 312 308 302 304 305 300 301 300 298 296 295 295 295 295 295
325 326 327 327 328 328 327 327 328 327 326 325 324 320 315 313 311 306 304 305 304 302 301 299 297 296 296 295 295 295 294 293
325 326 326 327 327 328 328 328 327 325 321 317 316 312 309 306 305 305 306 305 302 301 298 297 297 296 295 295 294 294 293 293
324 325 325 325 326 326 326 326 323 319 314 310 307 306 305 305 305 305 302 302 302 300 298 296 296 296 295 294 294 294 293 292
320 320 322 322 322 320 320 318 317 314 310 307 305 305 306 306 305 303 302 301 299 297 296 296 296 295 294 294 294 293 292 292
316 316 318 321 319 316 313 311 311 309 308 306 306 306 306 305 304 302 301 298 297 296 296 296 295 294 294 294 293 292 291 291
316 314 315 316 315 312 311 309 308 307 306 306 305 305 304 303 302 298 299 298 296 297 295 295 295 294 294 293 292 291 290 290
317 315 315 315 311 309 309 308 308 307 306 305 304 300 299 298 299 299 296 296 298 295 295 294 294 294 293 293 292 290 290 289
316 315 313 310 309 308 308 307 305 304 303 300 298 298 298 296 296 295 298 296 295 294 294 294 293 293 293 292 291 290 289 289
305 305 305 304 305 303 302 302 300 298 298 298 296 295 296 298 299 298 296 294 294 294 293 293 293 293 292 291 290 290 289 289

GFSFLT1_925_thetae_060.txt.gz
Theta_e
326 326 324 324 327 328 329 330 326 324 321 324 325 328 328 327 325 325 325 322 318 316 314 312 308 306 305 303 301 301 301 300
326 326 327 324 326 327 327 329 326 325 325 326 327 327 325 324 323 323 322 320 318 316 311 308 306 306 305 303 301 301 301 300
326 326 328 326 327 326 327 328 328 325 326 327 327 326 323 321 321 319 318 316 312 309 308 307 306 306 304 302 302 301 300 299
326 325 326 327 326 326 326 326 327 326 327 327 325 321 318 317 317 317 315 312 310 309 308 307 306 305 303 302 301 301 299 298
324 324 323 323 324 325 325 325 325 326 326 326 323 319 316 316 317 316 313 312 311 308 307 306 305 303 303 302 301 299 297 296
321 322 322 322 323 324 325 325 325 325 325 324 321 318 317 318 316 313 312 311 310 307 306 305 304 303 302 300 298 297 296 296
318 320 321 321 322 324 324 324 325 324 324 322 320 319 319 318 314 312 312 311 309 307 305 303 302 300 301 298 297 296 295 295
315 318 320 321 323 324 324 324 323 324 323 322 321 320 320 318 314 312 312 310 308 306 304 302 302 304 302 299 297 295 295 294
316 318 321 322 323 324 324 324 324 323 323 322 321 320 322 318 315 313 312 310 307 303 302 303 304 301 299 298 297 295 294 294
317 320 323 324 324 324 325 324 324 324 325 323 323 323 322 321 315 313 312 310 304 302 304 303 304 299 299 298 295 295 294 294
319 322 325 325 325 326 326 325 325 325 324 325 324 325 324 322 315 313 311 305 303 304 305 303 300 300 298 296 295 294 294 294
321 323 325 326 327 327 326 325 325 326 326 325 325 324 321 316 313 310 305 303 304 306 303 302 299 297 297 295 295 294 294 293
321 322 324 325 326 326 326 325 326 327 326 324 322 319 315 311 308 305 305 305 306 304 303 299 297 297 295 295 294 294 293 293
320 320 322 324 324 323 324 325 323 322 320 315 311 308 306 305 304 305 305 306 303 302 299 297 296 295 295 294 294 293 293 292
318 318 319 321 321 320 319 318 317 314 310 307 305 304 304 305 306 304 304 301 299 298 297 296 295 295 295 294 293 293 293 292
317 316 315 317 314 312 312 311 310 309 307 306 305 305 306 306 303 302 299 298 298 296 295 295 295 295 294 293 293 293 292 291
317 314 314 313 311 309 308 307 307 307 306 305 305 306 304 303 301 299 298 296 295 297 296 295 295 294 293 293 293 292 291 290
312 311 310 309 309 308 307 307 306 305 305 304 302 301 299 298 296 295 297 299 299 297 295 294 294 293 293 293 293 292 291 290
303 302 301 303 305 304 303 303 303 301 298 298 297 296 296 298 299 299 299 297 294 294 293 293 293 293 293 293 292 291 290 290

GFSFLT1_925_thetae_063.txt.gz
Theta_e
325 325 325 326 326 326 327 328 329 329 325 320 320 322 325 328 328 327 326 324 320 317 313 312 309 306 305 303 301 300 302 301
326 325 325 325 326 327 328 329 329 329 324 322 323 326 327 328 326 326 324 320 317 316 313 311 307 306 305 302 301 302 302 300
326 326 326 325 325 326 327 328 329 326 323 320 323 324 326 326 324 323 319 319 318 315 314 309 306 305 304 302 302 302 302 299
329 326 327 326 325 325 326 327 329 327 324 323 325 325 324 321 319 319 319 319 316 313 309 307 306 305 304 303 302 302 302 299
330 328 327 327 325 325 325 326 327 327 324 323 324 323 321 318 318 318 317 314 310 309 308 306 306 305 303 302 301 300 298 299
331 329 328 327 325 325 325 326 325 325 325 324 324 322 320 319 317 317 314 312 310 308 307 306 305 304 303 302 300 298 297 296
329 328 327 325 324 325 325 325 324 323 324 324 324 321 319 317 316 314 312 312 311 309 307 306 304 303 301 300 301 298 295 295
326 325 324 323 323 324 325 324 324 323 323 324 323 322 320 319 317 314 312 310 309 308 306 304 303 302 302 302 298 296 299 295
324 323 323 323 323 324 324 324 324 323 324 324 324 323 320 319 319 316 312 311 310 308 305 304 301 303 302 302 299 300 296 295
320 320 321 322 323 324 323 324 324 323 322 322 322 322 320 321 319 316 312 310 309 306 303 301 302 304 303 301 299 296 295 294
316 318 320 322 323 324 324 324 324 324 323 322 322 320 321 322 320 317 311 309 307 303 301 303 304 303 302 298 297 295 294 294
320 320 322 323 324 324 325 325 325 324 324 323 322 320 321 321 318 312 309 307 306 303 304 304 303 301 298 297 295 295 294 295
323 323 325 325 325 326 326 325 325 325 323 322 321 319 318 315 311 308 306 305 303 305 305 303 300 297 297 297 295 294 294 294
324 325 325 326 326 326 325 324 324 320 321 320 315 312 309 307 305 304 303 303 304 304 301 299 298 297 296 295 295 294 294 293
324 325 325 324 324 323 323 319 319 318 314 309 308 306 305 304 304 305 306 304 301 300 298 300 297 296 295 295 294 294 293 293
321 322 323 322 319 315 313 313 311 310 309 307 306 305 304 304 305 303 301 299 299 298 298 297 296 296 295 295 294 293 293 293
318 317 318 317 313 312 310 310 309 309 308 306 304 305 305 304 301 299 299 298 296 296 296 296 296 296 296 294 294 293 293 292
313 313 313 311 310 309 308 307 306 306 305 303 303 303 301 300 298 296 296 297 298 299 298 296 295 294 294 293 293 293 292 292
307 306 304 304 304 304 304 303 303 301 299 300 300 298 297 298 298 298 297 298 298 296 294 293 292 292 292 292 292 292 292 292

GFSFLT1_925_thetae_066.txt.gz
Theta_e
328 328 326 324 324 325 326 328 329 329 330 326 323 323 324 328 329 328 325 324 322 321 317 314 313 312 311 309 308 307 307 307
328 327 329 325 325 326 327 328 329 330 330 326 323 324 326 328 329 329 326 324 322 319 317 314 313 312 310 309 308 307 307 306
327 327 327 328 328 328 328 329 331 331 328 325 323 323 325 327 327 326 324 322 320 318 316 314 313 311 310 308 308 308 308 305
331 328 327 327 327 328 329 330 330 330 328 325 324 326 327 327 326 325 323 320 319 315 314 314 312 310 309 309 309 308 308 305
331 330 328 328 327 327 329 330 330 330 328 326 324 325 326 326 326 325 320 318 316 313 313 313 311 310 310 309 308 307 305 304
331 330 329 329 328 328 327 328 330 330 330 328 327 326 327 327 325 323 319 316 313 313 312 311 310 310 309 308 307 305 301 303
332 330 329 329 330 330 329 328 328 329 330 329 329 328 329 326 324 321 316 315 312 311 311 310 310 309 309 307 305 302 302 300
333 332 332 329 330 331 330 330 328 329 329 329 329 329 328 325 323 320 318 315 313 312 311 310 310 309 307 304 303 303 300 299
331 333 331 331 329 330 330 330 329 329 328 328 328 326 325 324 322 320 317 314 314 314 311 310 309 306 304 302 303 302 298 298
327 330 330 330 330 329 330 329 329 329 328 328 326 325 322 322 322 318 316 315 314 312 310 308 306 304 302 303 302 298 298 298
323 325 327 328 329 329 329 329 328 328 328 327 325 325 324 323 321 317 317 316 314 310 309 306 304 302 303 303 299 298 296 298
325 323 322 324 326 327 328 328 327 327 327 327 326 325 324 323 320 317 316 314 311 308 306 302 302 303 302 299 297 297 297 298
327 326 325 325 325 326 326 327 327 327 327 327 324 322 323 321 318 315 313 309 306 303 302 303 302 300 298 298 297 297 298 297
328 329 329 328 328 328 328 328 328 328 326 323 319 318 316 312 309 307 306 305 305 303 302 301 298 300 300 297 298 298 298 297
327 329 330 329 329 329 327 324 322 318 316 313 310 309 309 308 307 306 306 303 302 303 301 300 301 299 298 298 298 297 297 296
323 328 330 329 329 327 326 320 314 313 311 310 308 306 304 304 303 303 303 303 301 300 300 299 298 297 297 297 298 297 297 296
322 324 327 325 323 321 319 317 313 311 310 307 305 304 304 303 303 301 300 300 298 298 298 298 297 297 298 297 296 296 296 295
322 323 322 320 318 317 316 314 312 310 307 306 305 305 302 300 299 299 298 298 298 298 299 299 299 298 296 295 293 293 294 294
316 316 315 315 314 313 312 311 310 308 306 305 303 301 299 298 298 298 298 298 299 300 298 296 295 295 293 291 291 292 292 293

GFSFLT1_925_thetae_069.txt.gz
Theta_e
327 326 324 321 322 321 322 325 327 328 327 326 323 323 322 323 325 327 329 329 328 326 324 322 319 317 317 315 314 311 311 311
327 326 325 322 321 321 324 327 328 328 328 326 323 322 322 323 327 329 329 329 327 326 323 321 319 318 318 314 312 311 311 310
328 328 325 325 325 326 326 326 328 328 327 325 322 321 322 324 329 329 328 328 326 325 323 320 319 318 316 314 312 311 312 311
329 328 329 326 326 327 327 327 327 328 327 325 323 323 323 325 328 328 328 327 326 325 323 320 319 318 316 314 312 312 312 310
330 328 328 329 329 329 329 328 328 329 328 327 324 323 324 325 327 327 326 326 325 322 321 320 319 317 315 313 312 312 312 312
330 330 327 327 328 328 329 329 330 329 330 328 326 325 325 326 327 327 327 324 322 321 319 319 318 316 313 313 312 312 310 308
329 328 329 328 329 329 329 329 330 330 330 330 329 328 327 326 329 328 326 324 321 318 317 317 316 314 313 313 312 310 306 306
331 329 328 328 329 330 330 329 329 330 331 331 331 330 330 329 329 327 326 322 319 317 316 315 314 313 313 312 310 307 305 304
331 331 330 328 328 330 331 330 330 329 330 332 332 332 331 330 330 327 325 322 320 317 314 313 313 313 312 310 306 304 303 302
328 331 331 331 330 330 332 332 331 330 330 332 332 332 331 330 329 327 324 322 320 317 313 313 312 312 309 305 303 304 303 301
327 328 329 331 331 332 332 332 330 330 331 332 331 331 330 328 325 324 322 320 316 315 315 313 311 309 305 302 303 303 300 297
326 326 327 329 331 332 333 332 332 330 330 331 331 330 328 326 325 323 321 318 315 314 312 309 307 305 302 303 301 298 298 298
327 327 325 326 328 330 331 332 332 331 329 330 330 328 326 325 323 320 318 316 314 311 308 305 305 303 302 300 300 301 300 299
326 328 329 328 328 328 329 330 329 329 329 330 325 324 323 319 316 315 313 312 310 308 307 304 302 301 299 301 301 300 300 299
324 327 329 330 330 329 329 330 330 327 322 319 318 316 314 313 311 309 308 307 305 304 302 302 301 301 301 300 299 300 300 299
323 326 329 330 332 331 326 320 318 316 315 312 309 308 307 306 305 304 304 304 303 302 301 301 301 301 299 299 300 299 299 299
322 325 330 331 330 329 320 316 314 312 311 309 307 305 304 303 302 302 302 302 301 300 300 300 299 298 298 298 297 298 297 297
324 326 329 327 326 322 318 314 312 310 308 308 307 306 304 302 301 301 300 299 299 299 300 299 300 300 299 297 295 294 294 294
324 325 323 323 322 319 316 313 311 310 309 308 306 304 301 300 299 299 298 299 301 302 302 300 298 297 295 293 292 291 292 293

GFSFLT1_925_thetae_072.txt.gz
Theta_e
327 324 322 320 319 319 318 317 317 317 317 318 321 321 323 323 322 325 324 326 328 326 324 322 321 320 318 316 316 314 311 311
326 325 325 322 321 320 318 319 318 320 322 323 324 324 322 323 324 325 326 326 327 327 325 325 321 319 317 316 316 312 311 311
327 324 324 323 321 320 319 321 326 327 326 326 324 323 323 323 324 327 327 328 328 327 326 324 322 320 318 317 314 312 312 311
328 326 323 323 323 323 324 326 328 328 327 327 324 322 322 322 327 328 327 328 327 327 325 323 321 320 319 316 314 313 313 312
329 328 327 324 323 323 325 327 329 328 328 326 324 323 323 324 327 329 327 327 327 326 325 324 321 320 320 316 314 312 313 312
329 329 328 327 327 328 328 327 327 327 327 328 325 324 323 323 324 329 327 326 326 325 325 323 321 320 319 316 314 312 314 312
329 328 328 330 328 329 330 330 329 328 329 326 328 325 326 326 328 328 327 326 325 324 323 321 320 320 318 316 314 313 312 308
330 330 328 328 329 330 331 331 330 330 331 328 327 330 326 327 328 328 328 326 324 322 322 320 319 319 317 314 314 312 309 307
330 328 330 329 329 331 331 331 331 330 331 332 331 328 331 327 328 328 328 326 324 322 320 319 318 317 315 313 313 311 307 305
330 330 329 330 330 331 332 331 330 330 331 331 332 333 332 332 331 330 328 327 324 323 321 318 315 314 313 312 310 307 305 304
328 328 331 329 330 331 332 332 332 331 331 332 333 333 333 332 331 330 328 325 323 321 319 315 313 313 312 311 306 303 303 304
327 328 328 332 331 330 333 334 333 332 332 332 333 334 332 332 330 327 325 323 321 317 316 314 313 311 308 304 304 304 304 301
327 327 326 327 331 333 333 334 334 333 332 333 333 332 331 329 327 325 323 321 319 316 314 314 311 309 307 307 305 303 301 301
326 328 327 327 327 329 332 334 334 333 332 332 331 327 328 326 325 323 321 318 316 313 311 309 306 305 305 304 303 301 301 301
324 327 328 328 328 328 330 331 330 328 326 324 322 320 322 320 318 315 314 313 310 309 307 306 305 304 303 301 301 301 300 300
321 323 329 330 331 329 326 324 321 319 316 313 312 313 314 312 310 309 308 307 306 306 305 304 302 301 301 300 300 300 300 300
323 322 330 332 329 323 319 316 314 313 310 308 308 308 307 306 306 305 304 304 304 303 302 301 301 300 299 299 298 298 298 298
324 325 332 330 323 319 316 313 312 311 309 307 306 305 304 303 303 303 303 303 302 301 300 300 299 299 299 299 298 296 294 293
326 329 329 324 320 316 313 311 310 309 308 307 306 304 303 302 302 302 301 300 300 301 301 301 301 297 296 294 293 292 292 293

GFSFLT1_925_thetae_075.txt.gz
Theta_e
323 321 319 318 318 317 316 316 316 315 314 313 313 313 312 313 315 317 319 320 324 324 325 324 322 320 319 318 317 315 313 310
323 321 320 319 318 317 316 314 313 313 314 315 317 318 318 316 319 322 322 321 324 324 326 324 322 320 320 318 316 315 313 310
323 321 320 319 318 318 316 315 314 315 315 317 319 319 320 320 323 323 323 324 323 325 326 325 322 320 319 318 316 315 312 311
325 322 320 320 319 318 317 316 316 316 317 317 319 322 323 323 323 325 325 325 324 325 325 325 325 322 320 317 316 315 311 311
325 324 322 321 320 319 317 317 317 317 321 324 324 323 322 321 321 322 325 326 325 326 326 326 325 323 320 319 318 316 313 312
323 323 322 319 319 318 318 318 321 326 326 326 325 323 322 322 322 324 326 326 326 327 326 325 325 322 320 320 317 315 313 313
325 323 322 319 320 320 321 322 324 327 327 326 327 323 322 322 323 326 327 327 326 327 326 325 325 323 321 320 319 316 314 313
326 325 324 322 321 321 321 323 326 328 328 328 328 325 323 322 322 327 328 328 327 326 325 325 325 323 321 320 318 315 314 312
326 326 326 325 324 324 325 326 327 327 328 328 327 326 323 324 324 326 327 328 327 325 325 325 323 322 320 319 316 314 311 310
326 327 327 327 327 325 326 329 328 328 329 329 327 327 326 325 325 327 328 327 327 326 325 323 321 320 319 316 314 313 311 308
326 326 327 326 327 328 328 329 330 329 328 330 330 327 328 330 328 326 329 328 327 325 323 321 319 318 315 314 313 310 308 306
321 320 326 327 326 326 328 329 329 329 329 329 331 331 331 329 331 330 329 326 324 323 321 320 318 316 314 313 311 308 306 305
320 322 322 327 328 328 329 330 330 330 330 329 330 331 332 331 330 328 326 323 321 321 319 317 316 314 312 311 308 305 305 305
320 321 322 322 327 329 330 331 330 323 328 330 331 331 330 329 327 327 324 322 321 319 318 315 313 311 310 307 305 305 304 303
321 321 321 323 328 329 331 330 331 330 330 331 328 324 326 323 322 322 322 321 319 316 314 313 310 308 306 305 305 303 302 301
317 321 321 327 325 322 321 319 320 320 319 317 316 318 320 319 317 317 316 314 313 311 309 307 306 305 305 302 302 301 300 300
322 323 329 327 322 318 316 316 316 317 315 312 313 313 313 313 312 310 309 308 307 307 306 305 303 301 301 302 300 299 298 297
322 330 328 323 319 316 313 313 315 314 312 310 310 310 309 308 307 306 306 305 305 304 303 302 302 301 300 299 298 298 296 293
327 325 321 317 315 313 313 312 311 309 308 307 306 305 304 304 304 305 304 303 303 302 301 300 299 300 300 298 297 293 292 292

GFSFLT1_925_thetae_078.txt.gz
Theta_e
322 321 320 319 319 319 317 318 316 315 317 319 320 321 321 318 319 321 323 324 324 324 325 322 322 321 320 319 318 315 313 311
321 320 319 318 318 318 318 317 317 317 317 316 316 314 313 314 315 317 316 320 323 323 324 324 322 321 321 319 317 316 315 311
321 320 318 317 317 317 317 317 318 317 319 317 315 314 312 313 313 314 315 318 319 322 323 325 323 322 320 319 318 317 315 312
322 320 318 317 317 317 316 316 317 315 315 314 314 313 313 313 313 313 316 321 322 322 323 323 325 323 321 319 319 317 315 312
322 320 319 318 318 318 317 315 314 314 313 315 316 317 317 317 317 317 318 322 322 322 323 323 325 325 323 320 319 317 316 312
323 321 320 319 319 318 317 316 315 315 315 316 317 319 320 320 321 321 323 325 324 324 324 324 325 325 325 324 320 317 316 315
323 322 320 320 319 318 317 316 316 316 317 317 320 319 321 322 322 321 322 323 324 325 325 325 325 325 325 322 321 319 317 316
324 323 321 320 319 318 317 316 317 317 318 319 321 323 323 322 321 321 322 323 324 325 325 325 326 326 325 324 321 320 316 316
322 323 322 319 318 318 317 317 317 319 320 324 325 324 324 323 322 321 323 324 324 325 326 326 326 325 324 323 320 319 319 314
324 322 322 321 317 317 318 319 320 321 322 324 326 326 325 324 323 321 322 324 324 325 326 326 325 325 323 321 320 319 314 313
325 325 323 322 321 319 319 320 320 322 323 325 326 326 326 325 323 323 322 323 325 325 325 325 324 323 323 320 318 316 314 314
324 324 325 325 323 322 322 321 322 324 325 326 327 326 327 326 323 323 324 325 324 324 325 325 323 321 320 318 316 315 313 311
323 324 324 325 326 325 325 324 325 326 327 327 327 328 328 326 327 326 324 324 322 317 322 323 321 319 316 315 314 312 310 307
316 317 320 324 325 325 326 326 326 327 328 328 328 328 329 329 328 325 327 325 320 321 321 319 318 316 314 313 312 310 307 305
317 317 319 322 325 325 325 326 328 328 328 328 327 328 328 329 326 326 324 323 322 319 319 318 316 314 312 310 308 306 304 303
317 318 321 325 324 325 326 327 328 328 328 326 322 322 322 321 320 321 321 320 319 318 315 313 311 310 308 306 305 304 302 301
317 317 326 324 320 318 318 317 317 322 322 320 318 317 317 316 317 316 316 315 312 311 309 309 307 306 305 304 302 301 300 299
322 323 325 322 318 316 315 315 316 316 314 313 314 313 313 313 313 312 310 309 308 307 306 305 304 303 302 301 300 298 297 295
326 323 317 315 314 313 313 314 314 312 312 311 311 312 311 309 308 307 307 307 306 305 304 302 301 301 300 299 297 296 294 292

GFSFLT1_925_thetae_081.txt.gz
Theta_e
322 321 320 319 319 319 319 319 318 317 320 320 323 322 321 323 322 318 316 316 316 316 316 317 318 318 317 318 318 316 314 311
321 321 319 319 318 319 319 319 318 317 318 321 322 322 323 324 324 324 324 322 321 321 321 319 320 320 320 319 318 317 315 312
321 319 319 319 318 317 317 317 316 316 317 319 320 321 321 321 321 321 322 321 322 323 324 324 323 322 321 320 319 316 315 313
320 319 317 317 317 317 317 316 315 315 315 315 315 317 318 315 315 318 317 318 320 321 323 323 324 324 321 320 319 318 317 314
320 318 316 316 316 316 317 318 316 316 316 316 316 315 316 313 313 314 314 314 316 320 321 321 322 323 323 321 320 318 317 315
321 319 318 317 317 316 317 317 318 317 317 317 316 316 316 314 313 313 314 313 313 318 321 322 323 323 323 323 321 318 318 316
321 320 319 318 317 317 317 316 316 317 316 316 316 315 315 315 315 314 314 316 315 319 321 323 323 323 323 324 324 322 319 317
322 320 319 318 318 317 317 316 315 314 314 314 313 314 315 316 316 316 316 317 318 320 322 324 323 323 324 324 324 323 321 318
323 322 320 319 318 317 317 316 315 315 314 314 314 315 316 317 318 319 319 320 321 321 321 323 324 324 325 325 324 324 321 320
324 323 322 320 319 318 317 316 315 315 315 315 316 316 318 320 320 320 321 321 321 321 321 321 322 324 325 324 323 322 322 319
323 322 323 321 319 318 317 316 316 315 316 316 316 319 320 322 322 323 322 321 321 322 323 323 324 324 324 323 322 321 320 318
323 322 321 322 321 318 317 317 316 317 317 318 319 320 323 324 325 323 323 322 322 322 323 324 323 323 323 322 321 320 318 315
323 323 323 321 321 320 317 317 317 318 319 319 321 322 323 325 325 325 324 323 323 323 324 320 320 321 321 320 319 317 316 313
321 322 322 323 322 321 321 320 319 319 320 320 323 324 324 325 325 325 324 322 323 324 324 322 316 317 319 318 317 316 313 311
318 321 321 322 323 324 323 322 322 322 322 323 324 325 325 326 326 325 324 323 323 322 322 320 318 316 317 316 314 311 309 308
315 316 316 317 320 323 324 324 324 323 323 324 325 325 325 325 325 325 324 324 323 319 320 317 315 314 314 313 310 308 306 304
315 316 316 322 322 322 322 322 322 324 322 320 322 321 320 320 320 320 319 318 317 316 313 313 313 313 312 309 307 305 303 301
313 316 318 322 319 319 319 317 317 318 317 316 315 315 316 316 317 316 315 314 313 312 311 310 307 306 305 305 304 301 300 298
316 319 317 316 316 315 314 315 316 316 314 313 313 314 313 312 312 312 311 309 308 307 305 305 305 303 302 301 300 298 295 293

GFSFLT1_925_thetae_084.txt.gz
Theta_e
323 322 321 320 320 321 321 321 320 319 320 321 319 322 323 320 319 321 322 320 316 316 316 316 316 316 317 317 317 314 312 311
322 321 320 319 319 320 320 319 318 319 320 321 321 320 320 318 317 317 321 320 316 316 316 316 316 316 317 317 317 316 313 311
320 320 319 319 318 319 319 318 318 319 319 320 321 319 320 322 320 319 320 317 316 316 316 316 317 318 318 317 318 316 315 314
319 319 319 319 318 318 318 318 317 318 320 322 320 319 320 322 321 316 319 318 319 320 321 322 322 320 320 320 319 318 317 314
318 320 318 318 318 317 318 318 317 316 318 320 318 319 319 319 317 320 321 322 322 321 323 322 323 323 323 323 321 320 318 315
318 318 318 318 317 316 317 317 317 316 316 316 316 318 318 316 318 315 316 315 315 316 317 318 320 321 322 323 322 320 318 317
319 318 318 317 316 316 316 317 316 315 315 316 315 315 316 316 316 313 313 314 315 314 313 315 320 321 321 322 322 321 320 318
320 319 318 317 316 315 315 315 315 316 316 315 315 315 314 314 316 315 313 313 313 314 314 316 318 319 322 323 323 322 322 321
321 319 318 317 316 315 316 315 315 316 317 317 317 317 316 316 316 317 315 315 314 313 314 317 317 319 321 323 323 323 323 322
322 321 319 318 317 316 316 316 316 316 316 316 316 316 316 315 316 316 316 316 315 315 316 318 320 321 322 323 323 322 322 322
322 321 321 319 318 317 317 316 316 315 315 315 315 315 314 314 314 315 315 315 316 317 319 320 321 321 322 322 323 323 322 320
321 322 322 321 319 318 317 316 316 315 315 314 314 314 314 314 314 315 316 317 319 320 321 321 321 322 322 323 322 322 320 320
320 320 320 321 320 318 317 316 316 316 315 315 315 315 315 315 317 317 318 319 320 321 322 321 322 323 321 322 321 321 320 320
319 319 320 320 321 320 318 317 316 316 316 316 316 316 317 318 319 320 322 323 323 323 322 322 323 322 322 320 319 319 319 313
318 318 319 320 320 320 320 318 317 317 317 317 317 318 319 320 321 322 323 323 323 322 321 322 322 320 321 317 315 317 315 313
316 319 318 318 320 321 320 320 319 317 317 317 318 318 320 321 322 323 323 323 323 322 321 321 321 320 319 315 314 314 311 308
313 315 316 316 318 319 321 321 321 320 319 319 319 320 322 323 322 321 322 322 322 321 320 319 318 317 316 314 311 308 305 304
311 314 314 315 317 318 318 317 318 321 320 319 318 318 318 319 319 320 321 321 319 317 315 314 311 310 307 306 306 305 304 302
310 311 315 316 318 317 315 316 316 317 316 315 315 316 317 317 317 316 315 313 311 309 308 306 306 304 302 303 303 302 299 295

GFSFLT1_925_thetae_087.txt.gz
Theta_e
323 322 321 320 321 322 321 320 320 320 319 321 320 320 320 321 322 321 318 317 316 316 317 316 316 316 315 316 312 309 309 308
322 322 321 320 320 320 321 320 320 319 319 320 321 321 320 318 317 316 321 319 317 316 316 316 315 316 317 317 314 312 310 308
322 321 321 320 319 319 319 320 320 320 320 319 319 320 322 321 320 318 318 319 317 317 316 316 316 316 317 317 316 315 314 310
322 320 320 320 319 319 318 319 319 319 320 320 318 319 321 318 317 319 318 317 316 316 316 316 316 316 316 316 317 317 317 314
321 319 319 320 319 319 318 318 318 319 319 320 318 318 320 319 316 317 319 316 316 317 316 316 316 316 317 317 319 317 317 316
322 321 319 318 319 318 319 318 317 318 320 319 319 318 318 320 319 319 319 319 317 316 316 317 320 320 320 321 320 320 320 318
322 321 319 318 318 318 317 317 317 317 319 319 319 320 319 319 319 318 318 319 321 321 321 321 322 322 322 322 322 322 321 319
323 322 320 319 318 317 317 316 318 317 316 318 317 317 318 317 317 316 316 317 319 316 316 318 318 317 318 319 321 321 321 320
325 322 321 320 318 317 316 316 317 317 317 317 316 317 317 317 316 316 316 316 315 314 314 314 314 314 315 316 319 320 321 320
325 323 321 320 319 317 316 315 316 317 317 316 316 316 316 316 316 316 316 316 316 315 314 314 314 314 316 319 321 321 321 321
325 324 322 321 319 318 316 316 316 318 317 317 317 316 316 316 315 315 315 315 315 317 317 316 316 316 318 320 321 321 320 319
325 325 323 322 321 319 318 317 318 317 317 317 317 317 317 317 316 317 317 317 317 317 318 318 316 317 319 320 320 321 321 320
324 325 324 322 321 320 319 318 318 317 317 316 316 317 317 317 317 317 317 316 316 316 316 316 316 317 318 320 321 319 319 319
323 324 324 324 322 321 320 319 318 318 317 316 315 315 315 315 315 315 315 314 316 317 317 317 317 319 321 321 321 320 319 319
323 323 324 323 323 322 321 320 319 318 317 316 316 316 315 315 315 315 315 317 319 320 320 320 321 321 321 321 321 318 317 317
318 323 323 323 322 322 322 321 319 318 317 317 317 316 316 317 317 317 318 319 320 321 321 321 322 321 321 321 320 317 315 313
315 318 321 322 322 321 321 320 319 318 318 317 317 317 317 318 319 319 320 320 321 321 322 322 322 321 320 320 318 314 310 307
316 315 317 320 320 320 320 319 319 318 318 317 316 316 317 317 318 319 320 320 321 320 319 317 316 315 314 311 309 308 305 302
316 315 315 316 317 317 317 316 316 316 316 315 317 318 317 318 318 317 316 314 312 310 309 308 307 305 304 303 303 302 299 296

GFSFLT1_925_thetae_090.txt.gz
Theta_e
326 325 324 323 322 322 322 321 321 322 323 323 323 322 321 322 322 319 317 314 314 313 315 313 312 313 316 315 314 314 314 313
325 324 323 323 321 321 321 321 320 322 322 322 322 322 321 322 321 320 317 316 316 314 313 315 316 317 318 317 316 315 313 312
326 325 324 323 322 320 321 323 321 322 321 321 321 321 321 322 321 320 319 316 317 318 318 319 319 318 318 318 316 316 316 313
327 325 324 322 323 322 320 321 321 322 322 320 320 319 319 319 320 319 319 315 319 320 320 319 319 320 320 319 319 320 320 318
327 326 324 323 323 322 322 320 320 321 320 320 320 320 321 319 319 318 320 321 321 320 320 320 320 318 319 321 321 321 321 322
328 326 323 322 322 323 322 321 320 320 321 320 319 319 322 320 320 318 319 318 317 318 320 320 320 320 320 321 321 321 321 322
328 326 324 323 321 322 322 321 320 319 320 320 319 318 320 320 319 319 318 317 317 317 319 321 321 321 321 322 323 323 323 323
329 327 326 323 321 321 322 321 321 320 321 320 320 320 318 321 319 319 320 319 318 318 320 321 322 323 324 325 325 324 324 324
330 328 327 324 322 321 320 320 321 320 321 321 322 322 320 320 321 320 319 319 320 321 322 322 323 324 325 324 323 323 322 323
330 329 327 325 323 322 321 320 321 321 321 321 321 321 322 321 320 322 322 320 320 320 321 321 321 321 320 320 321 321 322 323
329 330 328 326 324 322 321 320 320 321 322 322 322 322 321 321 320 320 320 320 319 319 320 320 320 319 320 320 321 322 323 323
329 329 328 327 326 323 322 320 320 320 322 322 322 322 321 320 321 321 320 319 319 319 319 320 321 320 320 320 321 323 321 319
329 329 328 328 327 325 323 321 321 321 322 322 322 322 322 321 321 321 321 321 320 320 320 320 320 320 321 321 321 318 318 319
328 329 329 329 328 327 325 323 322 322 321 321 322 322 322 322 322 321 321 321 321 321 321 321 321 321 321 321 318 317 317 320
327 328 329 328 328 327 327 326 324 322 321 321 321 321 321 321 321 321 321 321 320 320 319 320 320 320 321 321 321 320 321 321
326 327 328 329 328 328 327 326 325 324 322 321 321 321 320 320 320 320 319 318 318 319 320 321 322 323 323 323 322 321 320 318
322 322 326 328 328 328 327 326 326 324 324 323 322 321 320 320 320 320 320 320 321 321 322 323 323 322 322 321 320 318 316 313
321 322 321 325 326 326 327 326 325 324 324 323 322 322 321 321 321 321 321 322 322 322 321 320 317 316 315 314 312 310 308 304
320 321 322 320 323 325 325 325 324 323 323 322 322 321 321 320 320 319 318 316 314 311 309 308 307 304 305 306 306 303 299 295

GFSFLT1_925_thetae_093.txt.gz
Theta_e
331 329 327 326 326 324 323 323 324 323 324 325 325 326 325 325 324 324 323 323 322 321 320 319 319 318 317 317 318 318 317 316
330 328 326 326 325 325 325 322 323 323 323 322 323 323 324 323 322 321 321 320 319 319 319 317 316 316 315 316 317 317 317 316
330 329 326 325 324 324 325 325 323 324 324 324 321 321 322 321 320 319 319 318 317 317 317 316 316 317 316 317 318 318 318 315
331 329 327 325 324 324 324 325 324 324 322 322 321 321 320 319 318 316 315 316 317 315 314 316 318 318 320 321 320 319 320 317
330 329 328 325 326 325 323 324 323 324 324 323 321 321 321 320 320 319 320 319 319 319 319 319 319 321 322 320 320 319 322 322
331 330 327 326 325 326 324 323 322 323 323 323 323 321 320 321 320 320 320 317 315 317 317 321 321 321 321 319 321 323 323 323
330 329 326 326 325 324 325 323 322 322 323 323 323 320 320 320 320 319 319 318 316 317 320 321 322 322 322 322 322 322 323 323
331 330 327 326 326 324 324 324 323 322 323 323 323 321 322 320 321 319 319 319 319 318 320 321 322 322 322 322 323 323 324 324
331 330 329 326 326 325 324 323 323 323 322 323 322 321 320 320 320 320 318 319 318 318 317 319 321 322 323 323 324 325 324 324
331 330 330 326 325 325 325 324 324 323 323 322 322 320 320 320 322 321 320 317 318 318 318 319 320 322 323 324 325 324 323 323
331 331 331 328 326 325 324 324 324 323 324 324 323 323 323 322 322 322 322 321 320 320 321 321 322 323 323 324 324 323 322 323
330 331 330 330 327 326 325 324 323 324 324 324 324 323 323 323 323 323 323 323 322 321 322 322 323 323 323 323 323 323 323 323
330 330 331 330 329 327 325 324 324 324 324 324 324 324 324 323 324 323 323 323 323 322 322 321 321 322 322 322 322 322 323 323
330 330 331 331 330 329 327 325 324 323 324 324 325 325 325 325 324 323 323 323 322 322 322 322 322 322 322 323 323 323 323 323
327 329 330 331 330 330 328 327 325 324 323 324 325 325 325 325 325 324 324 324 324 324 323 323 323 323 323 323 323 323 323 322
324 328 330 331 330 330 330 329 327 325 324 324 324 325 325 325 325 325 324 324 324 323 323 323 323 322 322 322 322 322 323 323
323 324 327 329 330 330 330 329 329 328 326 325 324 324 324 324 324 324 324 323 323 322 322 321 321 321 321 323 324 323 321 317
322 323 324 325 328 329 330 329 329 329 327 326 325 324 324 324 323 323 322 323 322 319 318 319 318 316 316 317 314 312 308 302
322 322 322 322 323 327 329 329 329 328 328 327 326 325 324 324 323 323 318 318 316 313 309 308 306 302 302 304 304 300 296 292

GFSFLT1_925_thetae_099.txt.gz
Theta_e
329 328 328 328 327 326 324 325 325 325 325 326 326 329 327 328 330 330 330 329 327 324 320 325 322 322 322 322 321 318 318 318
328 327 327 326 325 325 324 324 326 324 323 323 324 326 327 326 328 328 328 327 327 326 322 326 323 324 324 322 319 319 318 318
327 325 325 325 325 323 324 325 324 323 324 324 326 326 326 326 327 327 327 326 326 326 326 325 326 324 323 322 319 318 317 317
328 326 324 324 324 324 324 324 324 323 323 323 325 325 327 326 325 325 325 325 322 325 325 324 324 322 321 319 318 317 316 315
328 326 324 323 324 324 324 324 324 324 323 322 323 323 323 323 324 324 324 323 320 321 323 324 323 320 318 318 317 317 317 316
329 326 324 323 324 323 325 325 324 323 322 322 322 322 322 321 320 320 320 320 319 318 318 319 318 317 319 318 317 317 317 318
328 326 325 323 324 323 325 325 324 324 323 322 322 321 320 319 319 319 319 319 319 318 317 317 316 316 316 317 318 319 319 320
328 326 325 324 324 325 325 324 325 323 323 322 321 321 320 319 318 318 318 318 318 317 316 316 314 314 317 319 320 319 320 319
328 327 325 325 324 324 324 323 324 324 324 322 321 321 319 318 318 317 317 317 316 316 315 314 314 318 319 319 320 319 320 319
327 326 326 325 324 324 323 323 323 323 324 323 322 320 319 318 317 316 315 316 316 318 315 316 317 319 319 319 319 319 319 319
327 325 326 325 324 324 324 323 322 322 323 324 322 321 319 319 317 317 317 316 316 317 318 316 317 317 317 319 319 319 321 320
328 326 325 326 325 324 324 323 323 322 322 324 323 321 321 320 318 318 318 318 317 316 317 317 316 315 316 318 319 318 321 321
327 327 325 326 325 325 324 324 323 322 321 322 322 321 321 321 320 319 318 318 318 317 316 316 316 316 316 317 319 321 321 322
326 328 326 326 325 325 325 325 324 323 322 322 322 322 321 321 320 320 319 319 318 318 317 317 316 315 316 316 317 319 319 321
321 328 328 326 326 326 326 326 324 324 323 323 323 323 322 320 320 321 321 320 320 319 318 318 318 318 318 318 319 320 321 322
318 317 327 328 326 326 326 325 325 325 324 324 323 323 323 322 321 321 322 322 322 322 320 319 319 319 322 322 322 322 322 321
323 322 321 322 328 326 326 325 325 324 324 324 324 324 323 323 322 323 324 322 323 323 323 323 322 322 322 322 322 321 319 313
322 320 320 319 320 328 327 326 325 324 324 325 324 324 324 324 323 323 323 324 323 323 323 321 318 316 315 319 319 317 312 304
319 317 317 318 319 320 327 327 326 325 324 324 325 325 325 325 325 324 324 324 323 319 315 312 311 307 308 313 315 307 297 293

GFSFLT1_925_thetae_102.txt.gz
Theta_e
328 327 328 328 327 326 325 325 326 326 328 326 328 329 329 329 330 327 330 326 324 322 315 309 309 316 319 317 316 317 318 318
326 326 327 327 326 325 325 325 325 325 325 326 326 328 327 329 328 328 329 328 323 319 315 311 313 318 320 318 318 318 318 318
326 325 324 325 325 324 324 325 325 324 323 323 324 325 327 327 327 327 328 327 323 319 318 316 317 319 321 320 319 318 318 318
327 325 323 324 324 324 324 324 324 322 322 322 324 324 326 326 326 325 327 326 325 321 320 319 320 319 322 320 319 317 317 317
327 325 322 323 323 324 324 324 323 323 321 323 324 325 326 326 327 325 325 327 325 322 324 323 322 321 322 320 319 317 317 316
327 325 323 322 324 323 323 324 323 323 322 322 324 324 325 325 325 325 325 325 326 325 324 324 323 323 322 320 319 317 318 316
326 324 322 322 323 324 324 323 323 323 321 321 323 322 322 323 323 323 320 320 322 325 324 323 324 322 318 318 317 317 316 315
326 324 322 322 322 323 324 324 324 323 322 321 321 322 321 322 322 321 320 319 319 321 323 323 323 320 319 319 319 317 317 317
326 324 322 322 322 323 324 324 324 323 323 322 321 321 321 320 321 320 319 319 319 319 318 320 319 319 320 320 318 318 319 319
326 325 323 323 322 322 323 324 324 323 323 322 321 321 320 320 320 319 319 319 318 317 317 316 317 317 317 317 318 319 318 319
327 325 324 323 323 322 323 323 324 324 324 323 321 320 320 319 319 318 318 317 317 316 316 316 314 314 315 314 316 319 319 319
326 326 324 324 323 322 322 322 322 323 324 323 322 320 319 319 319 318 317 317 318 318 316 316 315 314 314 317 318 318 318 319
326 325 325 324 323 323 322 321 321 322 322 323 322 321 320 319 318 317 316 315 316 317 317 315 315 315 317 318 318 318 319 319
322 325 326 324 323 323 322 322 321 321 322 323 323 322 320 319 319 317 317 317 315 316 316 316 316 315 315 316 317 317 318 319
321 324 324 325 325 324 323 322 322 321 321 321 323 322 321 320 320 318 317 318 318 316 316 316 316 316 316 316 316 315 315 316
320 320 322 321 325 325 324 323 322 322 321 321 321 322 321 320 320 319 319 318 318 317 317 317 316 316 316 316 316 315 316 317
318 318 318 319 320 324 325 324 323 322 322 321 321 321 322 320 320 319 319 319 319 318 317 317 317 317 317 317 317 317 318 317
317 316 317 318 317 316 318 325 324 323 323 322 322 321 322 321 320 320 320 320 320 320 321 319 318 317 318 318 319 320 317 310
315 314 315 314 312 312 314 321 324 324 323 323 323 322 322 322 321 321 321 321 320 321 320 319 317 314 313 316 318 315 306 298

GFSFLT1_925_thetae_105.txt.gz
Theta_e
328 327 329 332 332 331 330 328 327 326 327 326 327 328 328 326 327 325 324 325 326 325 323 325 323 313 316 316 316 316 318 319
326 326 328 329 330 329 327 325 325 326 326 325 327 326 327 328 329 327 325 325 325 322 320 322 313 313 315 313 317 316 318 318
326 325 325 326 325 325 325 325 325 326 326 326 325 325 327 327 328 328 326 325 322 323 319 315 310 313 315 314 316 317 317 318
327 325 324 323 323 324 324 324 325 325 324 324 324 324 325 326 327 328 324 322 321 319 316 311 311 314 316 314 315 318 316 317
327 326 322 323 322 323 323 324 324 324 323 322 323 323 326 326 326 326 325 326 321 318 314 312 314 317 318 316 316 318 317 316
327 326 324 322 322 322 323 324 324 322 322 322 323 324 324 325 325 323 325 323 323 320 315 315 317 319 319 318 318 318 317 316
326 325 323 321 322 322 323 323 322 323 322 322 322 323 325 325 323 321 322 323 323 322 319 316 318 320 321 319 318 318 317 317
326 323 322 322 321 322 322 322 320 322 321 322 322 323 325 325 324 322 321 322 322 322 320 318 319 319 320 319 317 317 317 317
326 324 323 322 321 322 322 322 320 321 321 321 322 323 323 324 324 323 322 322 322 322 321 321 321 321 321 320 318 317 316 316
325 323 322 321 321 322 322 322 322 322 321 320 320 321 322 322 323 322 321 320 321 323 322 322 323 322 321 320 318 318 317 318
325 323 322 322 321 321 322 322 322 323 322 321 321 320 321 321 321 321 320 320 319 321 322 322 322 319 320 320 319 319 319 317
322 324 322 322 321 321 322 323 323 323 323 322 321 320 321 321 321 321 320 319 319 319 319 319 321 321 320 319 320 319 318 317
324 324 323 323 322 321 321 321 323 323 323 322 321 321 320 320 319 319 319 319 319 318 317 317 317 317 318 318 317 317 317 318
321 324 324 323 323 322 321 321 321 322 323 323 322 320 320 319 319 318 318 318 318 317 317 317 316 315 315 315 315 316 315 316
317 321 321 324 324 323 322 322 321 320 321 323 322 321 319 319 319 319 318 317 317 317 317 317 316 316 315 315 316 316 318 318
317 317 320 320 320 324 323 323 322 321 320 321 322 322 321 320 318 318 317 316 316 316 316 316 316 316 315 315 315 316 316 316
317 316 317 317 316 316 317 323 323 322 321 320 320 322 322 321 320 318 318 317 317 317 315 315 315 315 315 315 315 316 315 315
315 314 315 313 311 311 312 314 320 322 322 321 320 320 321 321 320 319 319 318 317 317 317 317 317 316 316 316 316 315 315 314
312 312 312 309 308 308 309 314 318 323 322 322 322 321 320 321 320 319 319 319 318 318 318 317 317 316 316 316 316 316 313 308

GFSFLT1_925_thetae_108.txt.gz
Theta_e
312 317 324 328 330 331 333 332 330 330 328 327 327 327 328 327 327 327 327 326 326 326 327 325 325 324 320 321 321 317 319 319
325 325 327 329 330 331 332 330 330 327 326 326 326 328 327 327 326 326 325 325 324 326 325 324 323 325 319 320 319 317 317 318
324 324 325 327 327 328 329 329 328 326 325 324 324 326 326 326 327 328 325 325 324 324 323 321 323 320 317 317 317 316 317 318
323 323 323 324 325 326 327 327 325 325 325 324 324 325 326 326 326 326 325 325 324 324 321 320 318 318 316 315 316 317 316 317
320 324 322 324 324 323 326 324 324 325 325 325 325 324 325 325 326 326 326 325 322 321 322 322 317 315 314 314 316 317 316 316
318 324 324 324 322 323 323 322 324 325 324 323 322 322 323 325 325 326 323 322 321 321 321 318 314 313 313 314 315 317 317 317
318 323 324 322 321 321 321 321 323 324 322 322 321 320 324 324 325 324 320 319 318 319 318 314 314 314 313 313 315 317 317 317
321 323 322 322 321 321 320 321 322 322 322 321 321 322 323 324 324 323 322 321 320 317 316 315 315 315 314 313 314 316 317 317
321 323 321 322 321 320 321 321 321 321 321 320 321 322 324 324 323 323 322 322 321 318 316 315 315 318 319 317 316 316 316 316
321 323 321 322 321 320 320 320 320 319 321 320 321 322 323 324 324 322 322 322 322 322 322 318 312 310 317 319 318 317 316 316
322 322 320 321 321 321 320 319 319 319 319 319 320 321 322 323 323 322 321 322 322 322 320 318 317 316 315 319 320 319 317 317
324 323 321 320 320 320 320 320 319 320 320 320 320 320 320 321 322 322 321 322 322 321 321 320 319 317 317 318 319 318 318 317
321 323 322 321 320 321 320 320 320 320 322 320 320 320 320 320 321 321 321 321 321 321 320 320 320 320 320 320 319 319 318 318
317 321 324 323 322 321 320 320 322 322 322 321 320 320 319 319 320 320 320 320 320 320 320 319 320 320 320 320 319 320 320 320
316 317 319 320 323 322 321 321 320 321 322 322 321 320 319 319 319 319 319 319 319 318 318 318 318 318 319 319 319 319 319 319
317 316 314 315 315 319 322 321 321 321 320 322 322 322 321 319 318 318 318 318 318 319 318 317 318 317 317 317 317 317 317 316
316 315 313 312 311 311 312 315 321 321 320 320 321 322 321 321 320 318 317 317 316 317 317 317 317 316 317 317 316 315 315 316
313 313 312 309 307 307 308 310 313 320 320 320 320 321 322 321 320 320 318 317 317 315 315 316 316 317 316 316 315 315 315 315
309 308 308 304 302 302 304 307 309 313 320 321 320 320 320 321 320 319 318 318 317 317 317 316 315 315 315 315 315 315 314 312

GFSFLT1_925_thetae_111.txt.gz
Theta_e
316 319 321 320 327 329 330 331 332 332 331 330 328 328 327 327 327 327 327 327 327 327 327 326 325 325 323 321 320 321 321 321
317 325 326 326 328 329 330 331 329 330 330 328 328 329 327 327 327 327 327 327 325 326 327 326 325 323 322 320 319 319 319 320
317 324 325 326 327 329 329 330 328 328 327 327 327 327 327 326 326 327 326 327 327 326 326 325 324 320 320 319 319 319 319 319
318 319 325 325 327 326 327 328 327 327 327 325 324 325 326 326 326 327 326 326 325 325 326 324 324 321 318 318 318 319 319 319
318 317 325 325 326 324 326 326 326 325 324 324 323 325 326 326 326 326 327 327 325 324 325 324 323 322 319 318 319 320 319 319
318 317 322 325 326 323 324 327 325 325 325 324 322 325 325 324 325 326 326 325 324 324 323 320 320 320 319 317 318 319 319 319
326 321 323 325 325 322 325 326 323 324 323 323 324 323 323 324 324 325 325 324 322 321 320 320 319 319 317 316 317 318 319 319
326 326 326 325 322 321 323 324 321 323 323 324 324 322 322 324 323 324 322 320 317 316 316 316 316 315 315 316 316 317 318 318
326 325 325 324 321 321 322 321 322 321 323 323 323 322 323 324 323 323 321 320 317 316 315 316 316 315 314 314 316 317 317 317
326 325 325 324 322 321 321 321 322 320 322 322 321 321 322 323 324 323 322 320 318 316 316 317 316 314 313 314 315 316 317 317
326 325 324 323 321 320 321 321 321 321 320 320 320 320 322 324 324 323 322 321 318 317 317 316 315 314 315 314 314 315 316 316
324 324 322 322 321 320 320 320 320 320 319 319 319 320 321 323 323 322 322 322 320 318 316 316 317 314 318 318 317 316 316 316
320 320 323 321 321 320 320 320 320 320 319 319 320 319 319 321 322 322 322 322 321 320 318 317 315 314 313 315 318 319 319 318
317 316 317 317 322 321 321 321 321 320 320 321 320 320 319 320 320 321 321 321 321 321 321 319 317 317 316 315 316 317 318 318
318 317 314 313 313 321 321 322 321 322 322 322 320 319 320 320 320 320 320 321 320 320 321 320 320 319 318 317 317 317 318 317
318 317 313 311 309 310 312 317 321 322 323 322 321 320 320 319 320 320 320 320 320 319 319 320 320 319 319 319 318 318 318 318
315 315 311 308 306 306 307 309 311 317 321 322 321 320 320 319 318 319 320 320 319 318 318 318 318 318 319 319 319 319 318 318
310 310 307 304 303 302 304 307 309 312 320 320 321 321 321 320 319 317 317 318 319 319 318 318 317 317 317 317 318 318 317 316
306 306 302 300 300 301 303 305 305 308 308 315 319 320 321 320 320 318 318 317 316 317 317 317 317 317 316 316 316 315 315 314

GFSFLT1_925_thetae_114.txt.gz
Theta_e
321 320 320 324 324 327 332 335 337 336 335 333 333 333 330 330 330 329 329 329 329 329 328 328 329 327 327 325 325 325 325 325
321 320 321 328 328 329 332 334 336 332 333 332 332 332 330 330 329 327 328 328 328 328 328 327 327 327 327 325 325 325 325 325
320 319 323 329 330 331 332 333 336 332 332 334 332 330 328 328 328 327 327 327 327 327 327 328 327 326 327 324 325 325 325 324
320 321 322 327 330 332 332 333 335 334 334 332 332 331 329 329 330 328 327 327 327 326 326 327 326 325 325 323 324 324 325 324
324 324 323 325 330 331 331 333 333 333 334 332 331 330 329 329 329 329 327 328 327 326 326 325 324 324 323 321 323 324 324 324
329 327 324 323 329 330 329 331 332 333 333 332 330 328 328 328 329 329 329 328 326 326 325 325 324 323 322 321 322 323 324 324
328 328 324 325 330 328 328 330 330 329 330 330 328 327 327 328 328 328 328 327 326 326 325 324 323 322 321 321 321 322 323 324
330 329 329 328 330 325 327 330 328 325 327 327 327 327 326 325 325 326 326 325 324 323 324 322 322 320 319 320 320 322 322 323
330 330 330 329 326 325 325 328 325 325 327 326 326 326 325 325 327 326 325 323 323 323 320 319 320 320 320 319 319 321 322 323
331 330 329 328 325 323 324 325 325 325 327 327 326 326 325 325 327 326 323 322 321 318 316 317 317 318 318 318 318 320 321 322
329 328 327 325 324 323 323 323 325 324 326 325 325 324 325 326 326 323 323 321 319 316 316 317 317 316 316 317 318 319 320 321
327 324 324 324 322 322 322 322 324 324 323 324 323 323 324 325 326 324 323 321 318 317 317 317 317 316 316 316 317 317 318 319
324 323 318 316 322 322 321 321 322 323 323 322 322 323 324 324 322 322 322 321 318 317 318 317 317 316 315 316 317 317 318 318
320 319 318 313 312 320 321 321 322 322 321 320 321 322 322 323 324 322 322 321 319 317 317 317 316 317 316 315 316 316 317 318
320 319 316 312 310 309 311 319 322 322 321 321 322 323 324 323 324 323 321 321 321 319 317 316 315 315 316 316 316 315 317 317
319 317 314 310 308 308 308 309 312 320 322 323 323 323 323 322 322 323 323 321 320 321 320 318 317 317 317 316 315 316 317 317
317 315 312 308 305 306 306 307 309 312 319 323 323 321 321 322 322 322 322 322 322 322 321 320 319 319 318 317 317 316 316 318
313 311 308 307 304 303 305 305 305 308 310 319 323 321 321 320 322 321 321 321 321 321 319 318 318 320 320 319 318 317 317 317
310 308 306 304 304 303 303 302 302 303 304 305 308 316 322 321 321 321 320 321 320 320 320 319 318 318 318 318 319 318 318 316

GFSFLT1_925_thetae_117.txt.gz
Theta_e
323 322 322 322 322 323 325 332 338 341 342 340 339 338 335 336 336 335 335 335 334 332 332 332 333 331 330 328 327 327 326 325
323 323 322 322 323 327 328 331 337 341 340 340 337 337 334 334 334 334 334 332 332 333 331 331 330 331 329 327 327 326 325 326
323 323 322 323 323 329 330 332 336 339 339 337 336 337 335 335 333 331 331 331 332 331 331 330 329 329 328 327 327 325 325 326
321 321 321 321 326 330 331 333 335 338 335 335 336 336 334 332 331 331 331 330 328 329 329 329 328 328 327 326 327 324 325 324
319 320 322 322 325 330 332 332 334 338 334 336 337 335 333 332 331 331 330 330 329 327 328 327 326 327 327 326 327 325 325 325
324 324 324 323 324 330 333 333 334 337 336 336 336 336 334 332 330 331 331 330 329 327 327 327 326 326 327 326 325 326 325 326
327 327 329 326 331 333 334 333 335 336 336 336 335 335 333 331 330 330 331 330 331 329 327 327 326 326 325 325 325 325 326 325
329 329 330 327 331 333 330 332 334 334 335 336 335 334 332 331 330 330 330 330 330 329 327 326 325 325 324 323 324 324 325 324
330 331 332 331 331 331 327 330 332 330 333 335 333 332 331 329 329 328 328 329 328 326 325 325 325 324 323 323 323 323 324 324
331 331 331 330 329 327 326 329 329 327 330 332 331 330 329 328 327 328 329 328 326 325 322 323 323 323 322 321 322 323 323 323
330 330 329 327 325 325 325 326 327 327 330 330 330 329 328 327 327 329 328 326 324 322 322 319 319 320 320 320 321 322 323 323
328 325 323 322 324 324 324 324 325 326 329 329 329 328 327 327 327 328 326 324 322 320 319 317 317 318 318 319 319 321 322 322
325 323 321 319 318 322 323 323 324 325 325 326 327 326 326 327 327 327 325 323 321 320 318 317 317 317 318 318 319 321 322 322
323 321 319 316 313 312 313 321 323 323 324 324 324 324 325 326 326 325 323 322 321 318 318 317 317 317 317 318 319 320 321 322
321 319 316 314 311 310 310 311 313 322 323 323 323 323 323 324 326 325 324 322 320 318 318 318 317 317 317 317 318 318 320 320
319 318 316 313 309 308 308 308 309 311 317 322 323 324 324 325 325 325 324 322 320 319 318 317 317 317 317 317 317 318 319 319
317 315 314 313 309 306 307 306 307 307 309 313 324 323 324 325 325 325 324 324 322 320 318 317 316 316 316 317 317 317 316 315
314 313 311 310 310 306 304 304 304 304 304 304 307 321 322 323 324 324 324 324 324 322 321 319 318 317 317 315 316 316 316 317
312 310 308 307 307 308 305 301 301 301 300 300 300 303 311 319 321 323 323 323 323 322 323 321 319 319 319 319 318 316 316 316

GFSFLT1_925_thetae_120.txt.gz
Theta_e
324 323 322 322 322 322 331 335 341 345 346 344 343 342 339 340 339 337 338 338 336 334 334 332 332 332 331 327 327 328 328 326
324 324 323 323 323 325 325 337 339 344 345 344 342 341 339 339 338 336 335 335 335 334 333 332 332 332 330 328 327 328 326 326
325 325 325 325 324 326 327 327 339 342 344 344 341 341 337 335 334 334 333 334 334 333 333 332 331 332 330 329 328 327 325 325
323 324 325 325 326 328 329 330 332 340 343 342 340 338 336 334 335 333 332 332 332 331 333 331 331 331 330 328 328 327 325 325
322 323 323 324 326 327 331 330 332 338 342 339 338 336 337 335 334 332 332 330 329 331 331 330 329 329 328 328 328 327 324 324
319 320 321 321 323 328 330 331 332 337 339 337 336 337 336 334 333 331 331 331 329 328 328 328 329 328 328 328 327 326 324 323
324 325 325 326 331 332 333 333 333 339 337 337 336 337 336 334 334 333 332 329 330 329 327 326 328 327 327 326 327 326 324 323
328 328 330 329 334 335 336 335 335 338 337 336 337 337 338 335 333 333 332 331 331 329 328 326 328 327 327 327 327 326 325 324
331 332 332 332 334 334 330 330 332 337 337 336 337 334 337 334 333 331 331 329 329 331 329 328 327 325 326 326 326 326 326 325
332 331 331 329 329 329 328 328 329 332 333 335 335 335 334 332 331 330 330 330 330 329 327 326 326 326 326 325 325 325 325 325
330 328 327 326 325 326 325 326 329 330 330 332 333 332 332 330 329 329 328 329 328 326 324 324 324 324 325 324 324 323 324 325
326 325 322 321 322 322 324 324 326 327 327 329 331 330 330 329 328 328 327 327 326 323 323 321 321 322 323 323 322 323 323 324
323 322 320 316 315 315 315 322 324 326 326 327 330 330 328 327 326 328 327 325 323 321 321 320 318 318 319 320 321 322 323 323
321 318 317 314 312 311 311 313 315 321 324 325 326 326 325 326 326 328 327 324 324 321 320 318 317 317 318 319 320 321 322 323
319 317 315 313 311 310 309 309 310 315 320 324 324 323 324 325 326 326 324 323 322 321 319 318 317 317 317 318 319 320 321 322
319 317 315 312 310 309 307 307 306 309 312 317 320 323 323 323 325 326 324 322 321 321 319 318 317 317 317 318 319 320 321 322
316 314 313 313 310 308 306 305 304 305 306 306 307 316 323 325 325 325 325 322 321 320 318 318 318 317 317 317 318 319 320 320
313 311 310 309 310 307 304 303 302 302 302 303 303 306 312 317 324 325 324 324 322 321 319 318 317 317 317 317 317 317 318 319
310 309 307 306 306 306 305 302 300 299 299 299 300 301 302 308 317 322 324 324 324 322 320 319 318 317 317 317 317 317 317 317

GFSFLT1_925_thetae_123.txt.gz
Theta_e
319 319 319 319 319 321 337 343 344 346 346 345 343 342 342 341 340 339 341 339 337 335 334 333 332 331 331 331 329 328 327 327
320 320 320 319 319 320 339 343 344 346 345 343 342 341 340 340 340 339 338 340 339 336 335 334 332 331 331 330 328 326 326 326
319 319 321 321 321 322 331 341 344 345 345 344 342 340 341 340 340 337 336 337 337 336 334 334 332 331 331 330 328 327 327 326
315 319 321 323 323 326 332 338 342 344 345 343 342 340 339 338 339 336 335 334 334 336 334 333 332 332 330 330 327 327 326 326
313 317 317 321 324 327 329 334 339 343 344 343 341 339 336 336 335 335 333 333 333 333 333 333 332 332 330 329 328 326 326 325
311 314 316 320 321 328 328 329 337 340 343 343 340 338 337 336 335 334 333 332 331 332 331 332 331 331 330 329 328 327 326 325
312 316 319 327 324 329 330 329 331 339 341 341 339 338 336 335 334 333 332 331 330 329 329 331 329 329 329 328 328 327 326 324
323 327 328 332 331 332 333 333 337 339 339 339 338 338 336 335 333 333 331 331 331 328 327 328 328 328 328 327 326 326 326 324
330 329 328 328 330 330 331 331 330 336 336 337 337 337 335 336 334 333 332 331 330 328 327 327 326 326 326 326 326 327 326 326
328 326 324 324 324 326 327 326 328 331 336 336 336 336 336 337 335 332 333 332 330 328 328 328 327 325 325 325 326 326 326 325
323 323 322 321 321 324 324 325 327 329 331 333 335 335 335 333 332 331 331 331 329 328 329 329 328 327 326 326 325 326 326 326
323 320 318 317 317 319 321 323 325 327 328 328 332 332 332 331 330 329 328 329 329 329 327 326 325 325 325 325 325 325 325 325
319 317 314 313 312 312 314 316 320 324 326 327 328 330 330 330 328 328 328 327 327 326 324 322 321 321 321 323 324 324 324 324
316 314 313 312 310 310 310 310 313 318 324 325 326 327 329 328 327 326 328 327 325 324 321 321 320 319 318 319 320 322 322 323
315 313 311 309 308 307 307 307 308 312 317 321 322 323 325 326 326 326 328 326 324 324 321 320 319 317 317 317 318 320 321 323
315 312 310 309 307 305 304 304 304 306 309 311 312 318 322 323 325 326 326 324 323 322 321 320 319 318 317 317 318 319 320 322
312 312 311 309 306 304 303 301 301 302 303 304 306 311 316 321 324 325 325 323 322 321 321 319 318 318 317 317 318 319 319 321
308 307 306 307 306 303 301 299 299 298 298 299 301 304 308 310 317 324 325 324 322 321 320 319 318 318 317 317 317 318 319 321
305 303 302 301 303 302 299 297 297 296 296 296 296 298 301 306 309 314 317 323 323 321 320 319 318 318 317 317 317 318 318 319